| time (UTC) | temp C | wind direction | speed KPH | gust KPH | rain 1hr cm | rain 24hr cm | rain mn cm | humidity % | barometer mb |
| 20260506212949 | 29 | 302 | 3.2 | 12.9 | 0.00 | 0.00 | 0.00 | 18 | 918.8 |
| 20260506212840 | 29 | 243 | 3.2 | 12.9 | 0.00 | 0.00 | 0.00 | 18 | 918.9 |
| 20260506212515 | 29 | 237 | 1.6 | 12.9 | 0.00 | 0.00 | 0.00 | 19 | 918.9 |
| 20260506212408 | 29 | 221 | 1.6 | 8.0 | 0.00 | 0.00 | 0.00 | 19 | 918.9 |
| 20260506212301 | 28 | 304 | 1.6 | 8.0 | 0.00 | 0.00 | 0.00 | 20 | 918.9 |
| 20260506212157 | 28 | 262 | 0.0 | 8.0 | 0.00 | 0.00 | 0.00 | 20 | 918.9 |
| 20260506212051 | 28 | 249 | 0.0 | 8.0 | 0.00 | 0.00 | 0.00 | 20 | 919.0 |
| 20260506211946 | 28 | 288 | 0.0 | 8.0 | 0.00 | 0.00 | 0.00 | 20 | 918.9 |
| 20260506211840 | 28 | 216 | 0.0 | 8.0 | 0.00 | 0.00 | 0.00 | 20 | 918.9 |
| 20260506211732 | 28 | 103 | 1.6 | 8.0 | 0.00 | 0.00 | 0.00 | 19 | 918.9 |
| 20260506211630 | 28 | 140 | 1.6 | 8.0 | 0.00 | 0.00 | 0.00 | 19 | 919.0 |
| 20260506211525 | 28 | 119 | 1.6 | 8.0 | 0.00 | 0.00 | 0.00 | 19 | 919.0 |
| 20260506211419 | 28 | 161 | 1.6 | 8.0 | 0.00 | 0.00 | 0.00 | 19 | 919.0 |
| 20260506211055 | 28 | 243 | 3.2 | 8.0 | 0.00 | 0.00 | 0.00 | 19 | 919.1 |
| 20260506210953 | 28 | 301 | 3.2 | 8.0 | 0.00 | 0.00 | 0.00 | 19 | 919.0 |
| 20260506210846 | 28 | 229 | 3.2 | 8.0 | 0.00 | 0.00 | 0.00 | 20 | 919.1 |
| 20260506210742 | 28 | 254 | 3.2 | 8.0 | 0.00 | 0.00 | 0.00 | 20 | 919.1 |
| 20260506210637 | 28 | 250 | 1.6 | 6.4 | 0.00 | 0.00 | 0.00 | 20 | 919.1 |
| 20260506210046 | 28 | 187 | 1.6 | 6.4 | 0.00 | 0.00 | 0.00 | 20 | 919.1 |
| 20260506205940 | 28 | 180 | 1.6 | 6.4 | 0.00 | 0.00 | 0.00 | 21 | 919.2 |
| 20260506205833 | 28 | 221 | 0.0 | 9.7 | 0.00 | 0.00 | 0.00 | 20 | 919.1 |
| 20260506205730 | 28 | 182 | 1.6 | 9.7 | 0.00 | 0.00 | 0.00 | 20 | 919.2 |
| 20260506205624 | 28 | 153 | 1.6 | 9.7 | 0.00 | 0.00 | 0.00 | 20 | 919.2 |
| 20260506205259 | 28 | 216 | 1.6 | 9.7 | 0.00 | 0.00 | 0.00 | 21 | 919.2 |
| 20260506205154 | 28 | 292 | 1.6 | 9.7 | 0.00 | 0.00 | 0.00 | 21 | 919.2 |
| 20260506205052 | 28 | 298 | 1.6 | 9.7 | 0.00 | 0.00 | 0.00 | 21 | 919.2 |
| 20260506204944 | 28 | 245 | 3.2 | 9.7 | 0.00 | 0.00 | 0.00 | 21 | 919.2 |
| 20260506204842 | 28 | 221 | 3.2 | 9.7 | 0.00 | 0.00 | 0.00 | 21 | 919.2 |
| 20260506204735 | 28 | 254 | 3.2 | 9.7 | 0.00 | 0.00 | 0.00 | 22 | 919.2 |
| 20260506204630 | 28 | 238 | 3.2 | 9.7 | 0.00 | 0.00 | 0.00 | 21 | 919.2 |
| 20260506204526 | 28 | 246 | 1.6 | 9.7 | 0.00 | 0.00 | 0.00 | 21 | 919.2 |
| 20260506203721 | 28 | 273 | 0.0 | 6.4 | 0.00 | 0.00 | 0.00 | 22 | 919.3 |
| 20260506203613 | 28 | 300 | 1.6 | 6.4 | 0.00 | 0.00 | 0.00 | 21 | 919.3 |
| 20260506203509 | 28 | 335 | 1.6 | 6.4 | 0.00 | 0.00 | 0.00 | 22 | 919.3 |
| 20260506203401 | 28 | 286 | 1.6 | 6.4 | 0.00 | 0.00 | 0.00 | 23 | 919.4 |
| 20260506203257 | 28 | 282 | 1.6 | 9.7 | 0.00 | 0.00 | 0.00 | 21 | 919.4 |
| 20260506202934 | 28 | 350 | 1.6 | 9.7 | 0.00 | 0.00 | 0.00 | 22 | 919.5 |
| 20260506202827 | 27 | 285 | 1.6 | 9.7 | 0.00 | 0.00 | 0.00 | 22 | 919.4 |
| 20260506202724 | 27 | 19 | 1.6 | 9.7 | 0.00 | 0.00 | 0.00 | 23 | 919.5 |
| 20260506202621 | 27 | 253 | 1.6 | 9.7 | 0.00 | 0.00 | 0.00 | 23 | 919.5 |
| 20260506202038 | 27 | 336 | 3.2 | 9.7 | 0.00 | 0.00 | 0.00 | 22 | 919.5 |
| 20260506201930 | 27 | 325 | 1.6 | 9.7 | 0.00 | 0.00 | 0.00 | 22 | 919.5 |
| 20260506201607 | 27 | 242 | 1.6 | 9.7 | 0.00 | 0.00 | 0.00 | 23 | 919.5 |
| 20260506201502 | 27 | 223 | 1.6 | 9.7 | 0.00 | 0.00 | 0.00 | 24 | 919.6 |
| 20260506201359 | 27 | 217 | 1.6 | 9.7 | 0.00 | 0.00 | 0.00 | 23 | 919.5 |
| 20260506201254 | 27 | 255 | 1.6 | 9.7 | 0.00 | 0.00 | 0.00 | 23 | 919.6 |
| 20260506201147 | 27 | 299 | 1.6 | 9.7 | 0.00 | 0.00 | 0.00 | 24 | 919.6 |
| 20260506201043 | 27 | 215 | 1.6 | 9.7 | 0.00 | 0.00 | 0.00 | 23 | 919.6 |
| 20260506200940 | 27 | 215 | 1.6 | 9.7 | 0.00 | 0.00 | 0.00 | 23 | 919.7 |
| 20260506200833 | 27 | 240 | 1.6 | 9.7 | 0.00 | 0.00 | 0.00 | 23 | 919.7 |
| 20260506200729 | 27 | 257 | 1.6 | 12.9 | 0.00 | 0.00 | 0.00 | 23 | 919.7 |
| 20260506200626 | 27 | 259 | 1.6 | 12.9 | 0.00 | 0.00 | 0.00 | 24 | 919.8 |
| 20260506200300 | 26 | 184 | 1.6 | 12.9 | 0.00 | 0.00 | 0.00 | 23 | 919.8 |
| 20260506195934 | 26 | 212 | 1.6 | 12.9 | 0.00 | 0.00 | 0.00 | 24 | 919.8 |
| 20260506195832 | 26 | 105 | 3.2 | 12.9 | 0.00 | 0.00 | 0.00 | 24 | 919.8 |
| 20260506195508 | 26 | 165 | 3.2 | 12.9 | 0.00 | 0.00 | 0.00 | 24 | 919.9 |
| 20260506195146 | 26 | 229 | 3.2 | 12.9 | 0.00 | 0.00 | 0.00 | 25 | 919.9 |
| 20260506194825 | 26 | 194 | 3.2 | 12.9 | 0.00 | 0.00 | 0.00 | 25 | 920.0 |
| 20260506194723 | 26 | 238 | 1.6 | 9.7 | 0.00 | 0.00 | 0.00 | 25 | 920.0 |
| 20260506194615 | 26 | 217 | 1.6 | 12.9 | 0.00 | 0.00 | 0.00 | 25 | 920.0 |
| 20260506194508 | 26 | 196 | 1.6 | 12.9 | 0.00 | 0.00 | 0.00 | 25 | 920.0 |
| 20260506194403 | 25 | 221 | 0.0 | 12.9 | 0.00 | 0.00 | 0.00 | 25 | 920.1 |
| 20260506194259 | 25 | 235 | 0.0 | 12.9 | 0.00 | 0.00 | 0.00 | 26 | 920.1 |
| 20260506194151 | 25 | 200 | 0.0 | 12.9 | 0.00 | 0.00 | 0.00 | 26 | 920.0 |
| 20260506194045 | 25 | 250 | 0.0 | 12.9 | 0.00 | 0.00 | 0.00 | 26 | 920.1 |
| 20260506193940 | 25 | 203 | 1.6 | 12.9 | 0.00 | 0.00 | 0.00 | 26 | 920.1 |
| 20260506193353 | 25 | 190 | 3.2 | 12.9 | 0.00 | 0.00 | 0.00 | 26 | 920.1 |
| 20260506193252 | 25 | 213 | 4.8 | 12.9 | 0.00 | 0.00 | 0.00 | 26 | 920.2 |
| 20260506193147 | 25 | 231 | 4.8 | 12.9 | 0.00 | 0.00 | 0.00 | 26 | 920.2 |
| 20260506193041 | 25 | 9 | 4.8 | 12.9 | 0.00 | 0.00 | 0.00 | 26 | 920.2 |
| 20260506192711 | 25 | 30 | 3.2 | 12.9 | 0.00 | 0.00 | 0.00 | 25 | 920.2 |
| 20260506192609 | 25 | 36 | 3.2 | 11.3 | 0.00 | 0.00 | 0.00 | 25 | 920.2 |
| 20260506192503 | 25 | 28 | 3.2 | 11.3 | 0.00 | 0.00 | 0.00 | 26 | 920.2 |
| 20260506192358 | 25 | 355 | 1.6 | 11.3 | 0.00 | 0.00 | 0.00 | 26 | 920.2 |
| 20260506192252 | 25 | 349 | 1.6 | 11.3 | 0.00 | 0.00 | 0.00 | 26 | 920.2 |
| 20260506192146 | 25 | 327 | 1.6 | 11.3 | 0.00 | 0.00 | 0.00 | 26 | 920.2 |
| 20260506192042 | 25 | 334 | 1.6 | 11.3 | 0.00 | 0.00 | 0.00 | 26 | 920.3 |
| 20260506191936 | 24 | 5 | 1.6 | 11.3 | 0.00 | 0.00 | 0.00 | 26 | 920.3 |
| 20260506191827 | 24 | 232 | 1.6 | 11.3 | 0.00 | 0.00 | 0.00 | 26 | 920.3 |
| 20260506191723 | 24 | 265 | 3.2 | 11.3 | 0.00 | 0.00 | 0.00 | 26 | 920.4 |
| 20260506191615 | 24 | 293 | 3.2 | 11.3 | 0.00 | 0.00 | 0.00 | 26 | 920.4 |
| 20260506191509 | 24 | 334 | 3.2 | 11.3 | 0.00 | 0.00 | 0.00 | 27 | 920.4 |
| 20260506191405 | 24 | 313 | 3.2 | 11.3 | 0.00 | 0.00 | 0.00 | 26 | 920.4 |
| 20260506191301 | 24 | 140 | 3.2 | 11.3 | 0.00 | 0.00 | 0.00 | 26 | 920.4 |
| 20260506191154 | 24 | 82 | 3.2 | 11.3 | 0.00 | 0.00 | 0.00 | 26 | 920.4 |
| 20260506191047 | 24 | 82 | 3.2 | 11.3 | 0.00 | 0.00 | 0.00 | 26 | 920.5 |
| 20260506190941 | 24 | 355 | 3.2 | 11.3 | 0.00 | 0.00 | 0.00 | 26 | 920.5 |
| 20260506190838 | 24 | 355 | 3.2 | 11.3 | 0.00 | 0.00 | 0.00 | 26 | 920.5 |
| 20260506190732 | 24 | 319 | 3.2 | 11.3 | 0.00 | 0.00 | 0.00 | 26 | 920.5 |
| 20260506190408 | 25 | 22 | 1.6 | 9.7 | 0.00 | 0.00 | 0.00 | 26 | 920.5 |
| 20260506190303 | 25 | 25 | 1.6 | 9.7 | 0.00 | 0.00 | 0.00 | 26 | 920.5 |
| 20260506190156 | 25 | 279 | 1.6 | 9.7 | 0.00 | 0.00 | 0.00 | 26 | 920.6 |
| 20260506190052 | 25 | 355 | 1.6 | 9.7 | 0.00 | 0.00 | 0.00 | 26 | 920.6 |
| 20260506185945 | 25 | 340 | 1.6 | 9.7 | 0.00 | 0.00 | 0.00 | 27 | 920.6 |
| 20260506185842 | 25 | 284 | 1.6 | 9.7 | 0.00 | 0.00 | 0.00 | 26 | 920.6 |
| 20260506185736 | 25 | 49 | 1.6 | 9.7 | 0.00 | 0.00 | 0.00 | 26 | 920.6 |
| 20260506185633 | 25 | 26 | 1.6 | 14.5 | 0.00 | 0.00 | 0.00 | 25 | 920.7 |
| 20260506185528 | 25 | 5 | 1.6 | 14.5 | 0.00 | 0.00 | 0.00 | 25 | 920.7 |
| 20260506185425 | 25 | 331 | 1.6 | 14.5 | 0.00 | 0.00 | 0.00 | 26 | 920.7 |
| 20260506185320 | 25 | 26 | 1.6 | 14.5 | 0.00 | 0.00 | 0.00 | 26 | 920.7 |
| 20260506185213 | 25 | 252 | 1.6 | 14.5 | 0.00 | 0.00 | 0.00 | 26 | 920.7 |
| 20260506185110 | 25 | 355 | 3.2 | 14.5 | 0.00 | 0.00 | 0.00 | 26 | 920.7 |
| 20260506185007 | 25 | 271 | 3.2 | 14.5 | 0.00 | 0.00 | 0.00 | 26 | 920.7 |
| 20260506184903 | 25 | 268 | 3.2 | 14.5 | 0.00 | 0.00 | 0.00 | 26 | 920.7 |
| 20260506184540 | 25 | 225 | 3.2 | 14.5 | 0.00 | 0.00 | 0.00 | 26 | 920.8 |
| 20260506183958 | 25 | 209 | 1.6 | 14.5 | 0.00 | 0.00 | 0.00 | 26 | 920.8 |
| 20260506183854 | 25 | 313 | 1.6 | 14.5 | 0.00 | 0.00 | 0.00 | 27 | 920.8 |
| 20260506183747 | 24 | 225 | 0.0 | 14.5 | 0.00 | 0.00 | 0.00 | 26 | 920.8 |
| 20260506183641 | 24 | 213 | 0.0 | 9.7 | 0.00 | 0.00 | 0.00 | 27 | 920.8 |
| 20260506183539 | 24 | 248 | 0.0 | 3.2 | 0.00 | 0.00 | 0.00 | 26 | 920.8 |
| 20260506183434 | 24 | 248 | 0.0 | 3.2 | 0.00 | 0.00 | 0.00 | 27 | 920.9 |
| 20260506183329 | 24 | 228 | 0.0 | 3.2 | 0.00 | 0.00 | 0.00 | 27 | 920.8 |
| 20260506183227 | 23 | 221 | 0.0 | 3.2 | 0.00 | 0.00 | 0.00 | 27 | 920.9 |
| 20260506183123 | 23 | 72 | 0.0 | 9.7 | 0.00 | 0.00 | 0.00 | 27 | 920.9 |
| 20260506183019 | 23 | 55 | 0.0 | 9.7 | 0.00 | 0.00 | 0.00 | 27 | 920.9 |
| 20260506182650 | 23 | 166 | 1.6 | 9.7 | 0.00 | 0.00 | 0.00 | 27 | 920.8 |
| 20260506182542 | 23 | 190 | 1.6 | 9.7 | 0.00 | 0.00 | 0.00 | 28 | 920.9 |
| 20260506182437 | 23 | 184 | 1.6 | 9.7 | 0.00 | 0.00 | 0.00 | 28 | 920.9 |
| 20260506182331 | 23 | 103 | 1.6 | 9.7 | 0.00 | 0.00 | 0.00 | 27 | 920.9 |
| 20260506182225 | 23 | 105 | 1.6 | 9.7 | 0.00 | 0.00 | 0.00 | 27 | 920.9 |
| 20260506182121 | 23 | 113 | 1.6 | 9.7 | 0.00 | 0.00 | 0.00 | 27 | 920.9 |
| 20260506182013 | 23 | 107 | 1.6 | 9.7 | 0.00 | 0.00 | 0.00 | 27 | 920.8 |
| 20260506181909 | 23 | 184 | 3.2 | 9.7 | 0.00 | 0.00 | 0.00 | 28 | 920.9 |
| 20260506181752 | 23 | 200 | 1.6 | 9.7 | 0.00 | 0.00 | 0.00 | 28 | 920.9 |
| 20260506181644 | 23 | 163 | 3.2 | 9.7 | 0.00 | 0.00 | 0.00 | 28 | 920.9 |
| 20260506181535 | 23 | 213 | 3.2 | 9.7 | 0.00 | 0.00 | 0.00 | 28 | 920.9 |
| 20260506181430 | 23 | 223 | 3.2 | 9.7 | 0.00 | 0.00 | 0.00 | 28 | 921.0 |
| 20260506181323 | 23 | 223 | 3.2 | 9.7 | 0.00 | 0.00 | 0.00 | 28 | 920.9 |
| 20260506181218 | 23 | 230 | 1.6 | 9.7 | 0.00 | 0.00 | 0.00 | 27 | 921.0 |
| 20260506181112 | 23 | 234 | 1.6 | 8.0 | 0.00 | 0.00 | 0.00 | 28 | 920.9 |
| 20260506181006 | 23 | 267 | 3.2 | 8.0 | 0.00 | 0.00 | 0.00 | 28 | 920.9 |
| 20260506180419 | 23 | 333 | 1.6 | 6.4 | 0.00 | 0.00 | 0.00 | 28 | 920.9 |
| 20260506180312 | 23 | 228 | 1.6 | 8.0 | 0.00 | 0.00 | 0.00 | 28 | 921.0 |
| 20260506175948 | 22 | 195 | 1.6 | 8.0 | 0.00 | 0.00 | 0.00 | 29 | 921.0 |
| 20260506175843 | 22 | 264 | 1.6 | 8.0 | 0.00 | 0.00 | 0.00 | 29 | 921.0 |
| 20260506175739 | 22 | 182 | 1.6 | 8.0 | 0.00 | 0.00 | 0.00 | 28 | 921.0 |
| 20260506175632 | 22 | 163 | 1.6 | 8.0 | 0.00 | 0.00 | 0.00 | 28 | 921.0 |
| 20260506175527 | 22 | 163 | 1.6 | 8.0 | 0.00 | 0.00 | 0.00 | 28 | 921.1 |
| 20260506175425 | 22 | 223 | 1.6 | 8.0 | 0.00 | 0.00 | 0.00 | 29 | 921.1 |
| 20260506175320 | 22 | 238 | 1.6 | 8.0 | 0.00 | 0.00 | 0.00 | 28 | 921.1 |
| 20260506175218 | 22 | 227 | 1.6 | 8.0 | 0.00 | 0.00 | 0.00 | 29 | 921.1 |
| 20260506175111 | 22 | 275 | 3.2 | 8.0 | 0.00 | 0.00 | 0.00 | 28 | 921.1 |
| 20260506175004 | 22 | 236 | 3.2 | 8.0 | 0.00 | 0.00 | 0.00 | 29 | 921.2 |
| 20260506174902 | 22 | 273 | 3.2 | 8.0 | 0.00 | 0.00 | 0.00 | 29 | 921.1 |
| 20260506174758 | 22 | 275 | 3.2 | 8.0 | 0.00 | 0.00 | 0.00 | 29 | 921.1 |
| 20260506174654 | 22 | 248 | 3.2 | 8.0 | 0.00 | 0.00 | 0.00 | 29 | 921.1 |
| 20260506174333 | 22 | 233 | 3.2 | 8.0 | 0.00 | 0.00 | 0.00 | 29 | 921.1 |
| 20260506174226 | 22 | 243 | 3.2 | 8.0 | 0.00 | 0.00 | 0.00 | 29 | 921.1 |
| 20260506174120 | 22 | 246 | 1.6 | 8.0 | 0.00 | 0.00 | 0.00 | 29 | 921.1 |
| 20260506173758 | 22 | 284 | 1.6 | 8.0 | 0.00 | 0.00 | 0.00 | 29 | 921.1 |
| 20260506173650 | 22 | 209 | 1.6 | 8.0 | 0.00 | 0.00 | 0.00 | 29 | 921.1 |
| 20260506173326 | 22 | 250 | 1.6 | 8.0 | 0.00 | 0.00 | 0.00 | 29 | 921.1 |
| 20260506173222 | 22 | 250 | 1.6 | 8.0 | 0.00 | 0.00 | 0.00 | 29 | 921.1 |
| 20260506173115 | 22 | 246 | 1.6 | 8.0 | 0.00 | 0.00 | 0.00 | 29 | 921.1 |
| 20260506173008 | 22 | 215 | 1.6 | 8.0 | 0.00 | 0.00 | 0.00 | 29 | 921.1 |
| 20260506172904 | 22 | 154 | 1.6 | 8.0 | 0.00 | 0.00 | 0.00 | 30 | 921.0 |
| 20260506172759 | 22 | 310 | 1.6 | 8.0 | 0.00 | 0.00 | 0.00 | 29 | 921.0 |
| 20260506172428 | 21 | 262 | 0.0 | 8.0 | 0.00 | 0.00 | 0.00 | 30 | 921.0 |
| 20260506172058 | 21 | 229 | 0.0 | 6.4 | 0.00 | 0.00 | 0.00 | 30 | 921.0 |
| 20260506171951 | 21 | 200 | 0.0 | 6.4 | 0.00 | 0.00 | 0.00 | 30 | 920.9 |
| 20260506171844 | 21 | 169 | 0.0 | 6.4 | 0.00 | 0.00 | 0.00 | 30 | 921.0 |
| 20260506171737 | 21 | 158 | 0.0 | 6.4 | 0.00 | 0.00 | 0.00 | 30 | 920.9 |
| 20260506171629 | 21 | 153 | 1.6 | 6.4 | 0.00 | 0.00 | 0.00 | 30 | 920.9 |
| 20260506171304 | 21 | 178 | 1.6 | 6.4 | 0.00 | 0.00 | 0.00 | 30 | 921.0 |
| 20260506170942 | 21 | 192 | 1.6 | 6.4 | 0.00 | 0.00 | 0.00 | 30 | 920.9 |
| 20260506170836 | 21 | 151 | 1.6 | 6.4 | 0.00 | 0.00 | 0.00 | 30 | 920.9 |
| 20260506170730 | 21 | 129 | 0.0 | 6.4 | 0.00 | 0.00 | 0.00 | 30 | 920.9 |
| 20260506170627 | 21 | 147 | 0.0 | 6.4 | 0.00 | 0.00 | 0.00 | 31 | 920.9 |
| 20260506170525 | 21 | 48 | 0.0 | 4.8 | 0.00 | 0.00 | 0.00 | 30 | 920.9 |
| 20260506170159 | 21 | 221 | 0.0 | 4.8 | 0.00 | 0.00 | 0.00 | 31 | 920.9 |
| 20260506170053 | 21 | 211 | 0.0 | 4.8 | 0.00 | 0.00 | 0.00 | 31 | 920.8 |
| 20260506165951 | 21 | 231 | 0.0 | 4.8 | 0.00 | 0.00 | 0.00 | 31 | 920.8 |
| 20260506165628 | 21 | 41 | 1.6 | 4.8 | 0.00 | 0.00 | 0.00 | 31 | 920.9 |
| 20260506165524 | 21 | 46 | 1.6 | 4.8 | 0.00 | 0.00 | 0.00 | 31 | 920.9 |
| 20260506165421 | 21 | 46 | 1.6 | 4.8 | 0.00 | 0.00 | 0.00 | 31 | 920.8 |
| 20260506165319 | 21 | 41 | 0.0 | 4.8 | 0.00 | 0.00 | 0.00 | 31 | 920.9 |
| 20260506165212 | 21 | 40 | 1.6 | 4.8 | 0.00 | 0.00 | 0.00 | 32 | 920.9 |
| 20260506165108 | 21 | 53 | 1.6 | 4.8 | 0.00 | 0.00 | 0.00 | 32 | 920.9 |
| 20260506165006 | 21 | 85 | 1.6 | 4.8 | 0.00 | 0.00 | 0.00 | 31 | 920.8 |
| 20260506164900 | 21 | 44 | 1.6 | 4.8 | 0.00 | 0.00 | 0.00 | 31 | 920.8 |
| 20260506164753 | 21 | 28 | 1.6 | 4.8 | 0.00 | 0.00 | 0.00 | 31 | 920.9 |
| 20260506164646 | 21 | 117 | 1.6 | 4.8 | 0.00 | 0.00 | 0.00 | 32 | 920.9 |
| 20260506164326 | 21 | 194 | 0.0 | 4.8 | 0.00 | 0.00 | 0.00 | 32 | 920.9 |
| 20260506164223 | 21 | 237 | 0.0 | 4.8 | 0.00 | 0.00 | 0.00 | 32 | 920.9 |
| 20260506164120 | 21 | 228 | 0.0 | 4.8 | 0.00 | 0.00 | 0.00 | 32 | 920.9 |
| 20260506164018 | 20 | 229 | 0.0 | 4.8 | 0.00 | 0.00 | 0.00 | 33 | 920.9 |
| 20260506163912 | 20 | 211 | 1.6 | 4.8 | 0.00 | 0.00 | 0.00 | 33 | 920.8 |
| 20260506163808 | 20 | 211 | 1.6 | 4.8 | 0.00 | 0.00 | 0.00 | 33 | 920.9 |
| 20260506163702 | 20 | 201 | 0.0 | 4.8 | 0.00 | 0.00 | 0.00 | 33 | 920.9 |
| 20260506162637 | 20 | 71 | 0.0 | 3.2 | 0.00 | 0.00 | 0.00 | 33 | 920.8 |
| 20260506162532 | 20 | 71 | 0.0 | 4.8 | 0.00 | 0.00 | 0.00 | 33 | 920.8 |
| 20260506162424 | 20 | 132 | 0.0 | 4.8 | 0.00 | 0.00 | 0.00 | 34 | 920.8 |
| 20260506162103 | 20 | 152 | 0.0 | 4.8 | 0.00 | 0.00 | 0.00 | 34 | 920.8 |
| 20260506161742 | 20 | 248 | 0.0 | 4.8 | 0.00 | 0.00 | 0.00 | 34 | 920.7 |
| 20260506161639 | 20 | 248 | 0.0 | 4.8 | 0.00 | 0.00 | 0.00 | 34 | 920.8 |
| 20260506161534 | 20 | 244 | 0.0 | 4.8 | 0.00 | 0.00 | 0.00 | 34 | 920.7 |
| 20260506161430 | 20 | 209 | 0.0 | 4.8 | 0.00 | 0.00 | 0.00 | 34 | 920.8 |
| 20260506161326 | 20 | 209 | 0.0 | 4.8 | 0.00 | 0.00 | 0.00 | 34 | 920.8 |
| 20260506161219 | 20 | 215 | 0.0 | 4.8 | 0.00 | 0.00 | 0.00 | 34 | 920.8 |
| 20260506161113 | 19 | 215 | 0.0 | 4.8 | 0.00 | 0.00 | 0.00 | 34 | 920.8 |
| 20260506161010 | 19 | 215 | 0.0 | 4.8 | 0.00 | 0.00 | 0.00 | 34 | 920.8 |
| 20260506160908 | 19 | 240 | 0.0 | 4.8 | 0.00 | 0.00 | 0.00 | 34 | 920.8 |
| 20260506160800 | 19 | 213 | 0.0 | 4.8 | 0.00 | 0.00 | 0.00 | 34 | 920.8 |
| 20260506160657 | 19 | 233 | 0.0 | 4.8 | 0.00 | 0.00 | 0.00 | 35 | 920.8 |
| 20260506160555 | 19 | 5 | 0.0 | 3.2 | 0.00 | 0.00 | 0.00 | 34 | 920.8 |
| 20260506160452 | 19 | 5 | 0.0 | 3.2 | 0.00 | 0.00 | 0.00 | 35 | 920.8 |
| 20260506160347 | 19 | 136 | 0.0 | 3.2 | 0.00 | 0.00 | 0.00 | 35 | 920.8 |
| 20260506160245 | 19 | 192 | 0.0 | 3.2 | 0.00 | 0.00 | 0.00 | 35 | 920.8 |
| 20260506160138 | 19 | 192 | 0.0 | 3.2 | 0.00 | 0.00 | 0.00 | 35 | 920.8 |
| 20260506160032 | 19 | 192 | 1.6 | 3.2 | 0.00 | 0.00 | 0.00 | 35 | 920.7 |
| 20260506155706 | 19 | 211 | 0.0 | 3.2 | 0.00 | 0.00 | 0.00 | 35 | 920.7 |
| 20260506155601 | 18 | 211 | 0.0 | 4.8 | 0.00 | 0.00 | 0.00 | 35 | 920.7 |
| 20260506155459 | 18 | 219 | 0.0 | 4.8 | 0.00 | 0.00 | 0.00 | 35 | 920.7 |
| 20260506155353 | 18 | 219 | 0.0 | 4.8 | 0.00 | 0.00 | 0.00 | 35 | 920.7 |
| 20260506155248 | 18 | 221 | 0.0 | 4.8 | 0.00 | 0.00 | 0.00 | 35 | 920.7 |
| 20260506155144 | 18 | 229 | 0.0 | 4.8 | 0.00 | 0.00 | 0.00 | 35 | 920.7 |
| 20260506155039 | 18 | 215 | 0.0 | 4.8 | 0.00 | 0.00 | 0.00 | 36 | 920.7 |
| 20260506154931 | 18 | 232 | 0.0 | 4.8 | 0.00 | 0.00 | 0.00 | 36 | 920.7 |
| 20260506154825 | 18 | 223 | 0.0 | 4.8 | 0.00 | 0.00 | 0.00 | 36 | 920.7 |
| 20260506154720 | 18 | 231 | 0.0 | 4.8 | 0.00 | 0.00 | 0.00 | 36 | 920.7 |
| 20260506154615 | 18 | 213 | 1.6 | 4.8 | 0.00 | 0.00 | 0.00 | 36 | 920.7 |
| 20260506154513 | 18 | 214 | 1.6 | 4.8 | 0.00 | 0.00 | 0.00 | 36 | 920.6 |
| 20260506153926 | 18 | 217 | 0.0 | 4.8 | 0.00 | 0.00 | 0.00 | 36 | 920.6 |
| 20260506153819 | 18 | 221 | 0.0 | 4.8 | 0.00 | 0.00 | 0.00 | 36 | 920.6 |
| 20260506153712 | 18 | 236 | 0.0 | 4.8 | 0.00 | 0.00 | 0.00 | 36 | 920.6 |
| 20260506153605 | 18 | 206 | 0.0 | 1.6 | 0.00 | 0.00 | 0.00 | 36 | 920.6 |
| 20260506153244 | 18 | 210 | 0.0 | 1.6 | 0.00 | 0.00 | 0.00 | 37 | 920.6 |
| 20260506153139 | 17 | 210 | 0.0 | 0.0 | 0.00 | 0.00 | 0.00 | 37 | 920.6 |
| 20260506152558 | 17 | 213 | 0.0 | 4.8 | 0.00 | 0.00 | 0.00 | 37 | 920.6 |
| 20260506152235 | 17 | 227 | 1.6 | 4.8 | 0.00 | 0.00 | 0.00 | 38 | 920.6 |
| 20260506151909 | 17 | 192 | 1.6 | 4.8 | 0.00 | 0.00 | 0.00 | 38 | 920.6 |
| 20260506151326 | 17 | 227 | 0.0 | 4.8 | 0.00 | 0.00 | 0.00 | 38 | 920.6 |
| 20260506151221 | 17 | 222 | 0.0 | 3.2 | 0.00 | 0.00 | 0.00 | 38 | 920.6 |
| 20260506151115 | 17 | 271 | 0.0 | 3.2 | 0.00 | 0.00 | 0.00 | 38 | 920.6 |
| 20260506151011 | 17 | 219 | 0.0 | 3.2 | 0.00 | 0.00 | 0.00 | 39 | 920.6 |
| 20260506150907 | 16 | 221 | 0.0 | 3.2 | 0.00 | 0.00 | 0.00 | 39 | 920.6 |
| 20260506150802 | 16 | 239 | 0.0 | 3.2 | 0.00 | 0.00 | 0.00 | 39 | 920.6 |
| 20260506150659 | 16 | 252 | 0.0 | 3.2 | 0.00 | 0.00 | 0.00 | 39 | 920.6 |
| 20260506150555 | 16 | 281 | 0.0 | 3.2 | 0.00 | 0.00 | 0.00 | 39 | 920.6 |
| 20260506150453 | 16 | 297 | 0.0 | 3.2 | 0.00 | 0.00 | 0.00 | 39 | 920.6 |
| 20260506150129 | 16 | 286 | 0.0 | 4.8 | 0.00 | 0.00 | 0.00 | 40 | 920.6 |
| 20260506150023 | 16 | 257 | 0.0 | 4.8 | 0.00 | 0.00 | 0.00 | 39 | 920.5 |
| 20260506145916 | 16 | 268 | 0.0 | 4.8 | 0.00 | 0.00 | 0.00 | 40 | 920.5 |
| 20260506145809 | 16 | 253 | 0.0 | 4.8 | 0.00 | 0.00 | 0.00 | 40 | 920.6 |
| 20260506145706 | 16 | 257 | 0.0 | 4.8 | 0.00 | 0.00 | 0.00 | 40 | 920.5 |
| 20260506145600 | 16 | 317 | 0.0 | 4.8 | 0.00 | 0.00 | 0.00 | 40 | 920.6 |
| 20260506145452 | 16 | 302 | 0.0 | 4.8 | 0.00 | 0.00 | 0.00 | 41 | 920.6 |
| 20260506145130 | 16 | 289 | 0.0 | 4.8 | 0.00 | 0.00 | 0.00 | 41 | 920.6 |
| 20260506145022 | 15 | 271 | 0.0 | 4.8 | 0.00 | 0.00 | 0.00 | 41 | 920.6 |
| 20260506144915 | 15 | 265 | 0.0 | 4.8 | 0.00 | 0.00 | 0.00 | 41 | 920.6 |
| 20260506144331 | 15 | 252 | 0.0 | 4.8 | 0.00 | 0.00 | 0.00 | 41 | 920.5 |
| 20260506144225 | 15 | 225 | 0.0 | 3.2 | 0.00 | 0.00 | 0.00 | 41 | 920.5 |
| 20260506143644 | 15 | 309 | 1.6 | 4.8 | 0.00 | 0.00 | 0.00 | 42 | 920.5 |
| 20260506143538 | 15 | 323 | 1.6 | 4.8 | 0.00 | 0.00 | 0.00 | 42 | 920.5 |
| 20260506143436 | 15 | 298 | 1.6 | 4.8 | 0.00 | 0.00 | 0.00 | 42 | 920.4 |
| 20260506143328 | 15 | 305 | 1.6 | 4.8 | 0.00 | 0.00 | 0.00 | 42 | 920.5 |
| 20260506143221 | 14 | 300 | 1.6 | 4.8 | 0.00 | 0.00 | 0.00 | 42 | 920.5 |
| 20260506142636 | 14 | 209 | 0.0 | 4.8 | 0.00 | 0.00 | 0.00 | 43 | 920.4 |
| 20260506142531 | 14 | 289 | 0.0 | 4.8 | 0.00 | 0.00 | 0.00 | 43 | 920.3 |
| 20260506142426 | 14 | 292 | 0.0 | 4.8 | 0.00 | 0.00 | 0.00 | 43 | 920.3 |
| 20260506142101 | 13 | 290 | 0.0 | 4.8 | 0.00 | 0.00 | 0.00 | 44 | 920.3 |
| 20260506141956 | 13 | 290 | 0.0 | 4.8 | 0.00 | 0.00 | 0.00 | 44 | 920.3 |
| 20260506141852 | 13 | 289 | 0.0 | 4.8 | 0.00 | 0.00 | 0.00 | 44 | 920.3 |
| 20260506141746 | 13 | 286 | 0.0 | 4.8 | 0.00 | 0.00 | 0.00 | 44 | 920.3 |
| 20260506141644 | 13 | 300 | 0.0 | 4.8 | 0.00 | 0.00 | 0.00 | 44 | 920.3 |
| 20260506141539 | 13 | 279 | 0.0 | 4.8 | 0.00 | 0.00 | 0.00 | 45 | 920.2 |
| 20260506141433 | 13 | 304 | 0.0 | 4.8 | 0.00 | 0.00 | 0.00 | 45 | 920.2 |
| 20260506141327 | 13 | 288 | 0.0 | 4.8 | 0.00 | 0.00 | 0.00 | 45 | 920.2 |
| 20260506141225 | 13 | 285 | 0.0 | 4.8 | 0.00 | 0.00 | 0.00 | 44 | 920.2 |
| 20260506140859 | 13 | 288 | 0.0 | 3.2 | 0.00 | 0.00 | 0.00 | 46 | 920.2 |
| 20260506140755 | 13 | 277 | 0.0 | 3.2 | 0.00 | 0.00 | 0.00 | 46 | 920.2 |
| 20260506140650 | 13 | 298 | 0.0 | 3.2 | 0.00 | 0.00 | 0.00 | 46 | 920.2 |
| 20260506140106 | 12 | 271 | 0.0 | 3.2 | 0.00 | 0.00 | 0.00 | 47 | 920.2 |
| 20260506135744 | 12 | 281 | 0.0 | 3.2 | 0.00 | 0.00 | 0.00 | 47 | 920.2 |
| 20260506135635 | 12 | 292 | 0.0 | 3.2 | 0.00 | 0.00 | 0.00 | 47 | 920.2 |
| 20260506135529 | 12 | 283 | 0.0 | 3.2 | 0.00 | 0.00 | 0.00 | 47 | 920.2 |
| 20260506135423 | 12 | 261 | 0.0 | 3.2 | 0.00 | 0.00 | 0.00 | 47 | 920.1 |
| 20260506135316 | 12 | 265 | 0.0 | 3.2 | 0.00 | 0.00 | 0.00 | 47 | 920.1 |
| 20260506135211 | 12 | 271 | 0.0 | 3.2 | 0.00 | 0.00 | 0.00 | 47 | 920.1 |
| 20260506135104 | 12 | 275 | 0.0 | 3.2 | 0.00 | 0.00 | 0.00 | 47 | 920.1 |
| 20260506134956 | 12 | 263 | 0.0 | 3.2 | 0.00 | 0.00 | 0.00 | 47 | 920.1 |
| 20260506134851 | 12 | 258 | 0.0 | 3.2 | 0.00 | 0.00 | 0.00 | 47 | 920.1 |
| 20260506134303 | 11 | 277 | 0.0 | 1.6 | 0.00 | 0.00 | 0.00 | 48 | 920.0 |
| 20260506134156 | 11 | 271 | 0.0 | 1.6 | 0.00 | 0.00 | 0.00 | 48 | 919.9 |
| 20260506133831 | 11 | 99 | 0.0 | 0.0 | 0.00 | 0.00 | 0.00 | 47 | 919.9 |
| 20260506133503 | 11 | 99 | 0.0 | 1.6 | 0.00 | 0.00 | 0.00 | 47 | 919.8 |
| 20260506133140 | 11 | 98 | 0.0 | 0.0 | 0.00 | 0.00 | 0.00 | 47 | 919.8 |
| 20260506133034 | 11 | 99 | 0.0 | 0.0 | 0.00 | 0.00 | 0.00 | 47 | 919.8 |
| 20260506132932 | 11 | 99 | 0.0 | 0.0 | 0.00 | 0.00 | 0.00 | 47 | 919.8 |
| 20260506132829 | 11 | 99 | 0.0 | 0.0 | 0.00 | 0.00 | 0.00 | 47 | 919.8 |
| 20260506132727 | 11 | 99 | 0.0 | 0.0 | 0.00 | 0.00 | 0.00 | 47 | 919.7 |
| 20260506132620 | 11 | 99 | 0.0 | 0.0 | 0.00 | 0.00 | 0.00 | 47 | 919.8 |
| 20260506132518 | 11 | 99 | 0.0 | 0.0 | 0.00 | 0.00 | 0.00 | 47 | 919.8 |
| 20260506132414 | 11 | 99 | 0.0 | 0.0 | 0.00 | 0.00 | 0.00 | 46 | 919.7 |
| 20260506132307 | 11 | 99 | 0.0 | 0.0 | 0.00 | 0.00 | 0.00 | 46 | 919.7 |
| 20260506132159 | 11 | 99 | 0.0 | 0.0 | 0.00 | 0.00 | 0.00 | 46 | 919.6 |
| 20260506132056 | 11 | 99 | 0.0 | 0.0 | 0.00 | 0.00 | 0.00 | 46 | 919.6 |
| 20260506131948 | 11 | 99 | 0.0 | 0.0 | 0.00 | 0.00 | 0.00 | 46 | 919.7 |
| 20260506131625 | 11 | 74 | 0.0 | 0.0 | 0.00 | 0.00 | 0.00 | 46 | 919.6 |
| 20260506131521 | 11 | 74 | 0.0 | 0.0 | 0.00 | 0.00 | 0.00 | 46 | 919.6 |
| 20260506131159 | 11 | 74 | 0.0 | 0.0 | 0.00 | 0.00 | 0.00 | 45 | 919.5 |
| 20260506131052 | 12 | 74 | 0.0 | 0.0 | 0.00 | 0.00 | 0.00 | 45 | 919.5 |
| 20260506130948 | 12 | 74 | 0.0 | 0.0 | 0.00 | 0.00 | 0.00 | 45 | 919.5 |
| 20260506130841 | 12 | 74 | 0.0 | 0.0 | 0.00 | 0.00 | 0.00 | 46 | 919.5 |
| 20260506130734 | 12 | 74 | 0.0 | 0.0 | 0.00 | 0.00 | 0.00 | 45 | 919.5 |
| 20260506130627 | 12 | 74 | 0.0 | 0.0 | 0.00 | 0.00 | 0.00 | 45 | 919.5 |
| 20260506130048 | 12 | 74 | 0.0 | 0.0 | 0.00 | 0.00 | 0.00 | 46 | 919.5 |
| 20260506125944 | 12 | 74 | 0.0 | 0.0 | 0.00 | 0.00 | 0.00 | 46 | 919.5 |
| 20260506125837 | 12 | 74 | 0.0 | 0.0 | 0.00 | 0.00 | 0.00 | 46 | 919.4 |
| 20260506125730 | 12 | 74 | 0.0 | 0.0 | 0.00 | 0.00 | 0.00 | 46 | 919.5 |
| 20260506125625 | 12 | 74 | 0.0 | 0.0 | 0.00 | 0.00 | 0.00 | 45 | 919.4 |
| 20260506125516 | 12 | 74 | 0.0 | 0.0 | 0.00 | 0.00 | 0.00 | 45 | 919.4 |
| 20260506125151 | 12 | 74 | 0.0 | 0.0 | 0.00 | 0.00 | 0.00 | 45 | 919.4 |
| 20260506125047 | 12 | 74 | 0.0 | 0.0 | 0.00 | 0.00 | 0.00 | 45 | 919.3 |
| 20260506124945 | 12 | 74 | 0.0 | 0.0 | 0.00 | 0.00 | 0.00 | 45 | 919.3 |
| 20260506124621 | 12 | 74 | 0.0 | 0.0 | 0.00 | 0.00 | 0.00 | 45 | 919.3 |
| 20260506124518 | 12 | 74 | 0.0 | 0.0 | 0.00 | 0.00 | 0.00 | 45 | 919.2 |
| 20260506124416 | 12 | 74 | 0.0 | 0.0 | 0.00 | 0.00 | 0.00 | 45 | 919.2 |
| 20260506124308 | 12 | 74 | 0.0 | 0.0 | 0.00 | 0.00 | 0.00 | 45 | 919.2 |
| 20260506124206 | 12 | 74 | 0.0 | 0.0 | 0.00 | 0.00 | 0.00 | 45 | 919.1 |
| 20260506124103 | 12 | 74 | 0.0 | 0.0 | 0.00 | 0.00 | 0.00 | 45 | 919.1 |
| 20260506123955 | 12 | 74 | 0.0 | 0.0 | 0.00 | 0.00 | 0.00 | 46 | 919.1 |
| 20260506123854 | 12 | 74 | 0.0 | 0.0 | 0.00 | 0.00 | 0.00 | 45 | 919.1 |
| 20260506123530 | 12 | 74 | 0.0 | 0.0 | 0.00 | 0.00 | 0.00 | 45 | 919.0 |
| 20260506123424 | 12 | 74 | 0.0 | 0.0 | 0.00 | 0.00 | 0.00 | 45 | 919.1 |
| 20260506123318 | 12 | 74 | 0.0 | 0.0 | 0.00 | 0.00 | 0.00 | 45 | 919.0 |
| 20260506123216 | 12 | 74 | 0.0 | 0.0 | 0.00 | 0.00 | 0.00 | 45 | 919.0 |
| 20260506123109 | 12 | 74 | 0.0 | 0.0 | 0.00 | 0.00 | 0.00 | 45 | 919.0 |
| 20260506123005 | 12 | 74 | 0.0 | 0.0 | 0.00 | 0.00 | 0.00 | 45 | 919.0 |
| 20260506122902 | 12 | 74 | 0.0 | 0.0 | 0.00 | 0.00 | 0.00 | 45 | 919.0 |
| 20260506122757 | 12 | 74 | 0.0 | 0.0 | 0.00 | 0.00 | 0.00 | 45 | 919.0 |
| 20260506122437 | 12 | 74 | 0.0 | 0.0 | 0.00 | 0.00 | 0.00 | 45 | 918.9 |
| 20260506122332 | 12 | 74 | 0.0 | 0.0 | 0.00 | 0.00 | 0.00 | 45 | 918.9 |
| 20260506122227 | 12 | 74 | 0.0 | 0.0 | 0.00 | 0.00 | 0.00 | 45 | 918.9 |
| 20260506122125 | 12 | 74 | 0.0 | 0.0 | 0.00 | 0.00 | 0.00 | 45 | 918.9 |
| 20260506122022 | 12 | 74 | 0.0 | 0.0 | 0.00 | 0.00 | 0.00 | 45 | 918.9 |
| 20260506121701 | 12 | 74 | 0.0 | 0.0 | 0.00 | 0.00 | 0.00 | 45 | 918.9 |
| 20260506121338 | 12 | 74 | 0.0 | 0.0 | 0.00 | 0.00 | 0.00 | 45 | 918.9 |
| 20260506121231 | 12 | 74 | 0.0 | 0.0 | 0.00 | 0.00 | 0.00 | 45 | 918.9 |
| 20260506121019 | 12 | 74 | 0.0 | 0.0 | 0.00 | 0.00 | 0.00 | 45 | 918.8 |
| 20260506120914 | 12 | 74 | 0.0 | 0.0 | 0.00 | 0.00 | 0.00 | 45 | 918.8 |
| 20260506120810 | 12 | 74 | 0.0 | 0.0 | 0.00 | 0.00 | 0.00 | 45 | 918.9 |
| 20260506120706 | 12 | 74 | 0.0 | 0.0 | 0.00 | 0.00 | 0.00 | 44 | 918.8 |
| 20260506120603 | 12 | 74 | 0.0 | 0.0 | 0.00 | 0.00 | 0.00 | 45 | 918.9 |
| 20260506120457 | 12 | 74 | 0.0 | 0.0 | 0.00 | 0.00 | 0.00 | 45 | 918.8 |
| 20260506120351 | 12 | 74 | 0.0 | 0.0 | 0.00 | 0.00 | 0.00 | 45 | 918.8 |
| 20260506120249 | 12 | 74 | 0.0 | 0.0 | 0.00 | 0.00 | 0.00 | 45 | 918.8 |
| 20260506120147 | 12 | 74 | 0.0 | 0.0 | 0.00 | 0.00 | 0.00 | 44 | 918.8 |
| 20260506120040 | 12 | 74 | 0.0 | 0.0 | 0.00 | 0.00 | 0.00 | 44 | 918.8 |
| 20260506115719 | 12 | 74 | 0.0 | 0.0 | 0.00 | 0.00 | 0.00 | 44 | 918.8 |
| 20260506115616 | 12 | 74 | 0.0 | 0.0 | 0.00 | 0.00 | 0.00 | 44 | 918.8 |
| 20260506115511 | 13 | 74 | 0.0 | 0.0 | 0.00 | 0.00 | 0.00 | 44 | 918.8 |
| 20260506114927 | 13 | 74 | 0.0 | 0.0 | 0.00 | 0.00 | 0.00 | 44 | 918.9 |
| 20260506114819 | 13 | 74 | 0.0 | 0.0 | 0.00 | 0.00 | 0.00 | 44 | 918.8 |
| 20260506114715 | 13 | 74 | 0.0 | 0.0 | 0.00 | 0.00 | 0.00 | 44 | 918.8 |
| 20260506114611 | 13 | 74 | 0.0 | 0.0 | 0.00 | 0.00 | 0.00 | 43 | 918.8 |
| 20260506114029 | 13 | 74 | 0.0 | 0.0 | 0.00 | 0.00 | 0.00 | 43 | 918.8 |
| 20260506113926 | 13 | 74 | 0.0 | 0.0 | 0.00 | 0.00 | 0.00 | 43 | 918.8 |
| 20260506113557 | 13 | 74 | 0.0 | 0.0 | 0.00 | 0.00 | 0.00 | 42 | 918.8 |
| 20260506113451 | 13 | 74 | 0.0 | 0.0 | 0.00 | 0.00 | 0.00 | 42 | 918.8 |
| 20260506113349 | 13 | 74 | 0.0 | 0.0 | 0.00 | 0.00 | 0.00 | 43 | 918.7 |
| 20260506113245 | 13 | 74 | 0.0 | 0.0 | 0.00 | 0.00 | 0.00 | 42 | 918.7 |
| 20260506113139 | 13 | 74 | 0.0 | 0.0 | 0.00 | 0.00 | 0.00 | 42 | 918.7 |
| 20260506113033 | 13 | 74 | 0.0 | 0.0 | 0.00 | 0.00 | 0.00 | 42 | 918.7 |
| 20260506112713 | 13 | 74 | 0.0 | 0.0 | 0.00 | 0.00 | 0.00 | 42 | 918.6 |
| 20260506112609 | 13 | 74 | 0.0 | 0.0 | 0.00 | 0.00 | 0.00 | 42 | 918.6 |
| 20260506112503 | 13 | 74 | 0.0 | 0.0 | 0.00 | 0.00 | 0.00 | 42 | 918.7 |
| 20260506112355 | 13 | 74 | 0.0 | 0.0 | 0.00 | 0.00 | 0.00 | 42 | 918.6 |
| 20260506112248 | 13 | 74 | 0.0 | 0.0 | 0.00 | 0.00 | 0.00 | 42 | 918.6 |
| 20260506111705 | 13 | 73 | 0.0 | 0.0 | 0.00 | 0.00 | 0.00 | 42 | 918.5 |
| 20260506111558 | 13 | 73 | 0.0 | 1.6 | 0.00 | 0.00 | 0.00 | 42 | 918.5 |
| 20260506111456 | 13 | 74 | 0.0 | 1.6 | 0.00 | 0.00 | 0.00 | 42 | 918.5 |
| 20260506111350 | 13 | 73 | 0.0 | 3.2 | 0.00 | 0.00 | 0.00 | 42 | 918.5 |
| 20260506111243 | 13 | 73 | 0.0 | 3.2 | 0.00 | 0.00 | 0.00 | 42 | 918.5 |
| 20260506110918 | 13 | 69 | 0.0 | 3.2 | 0.00 | 0.00 | 0.00 | 41 | 918.5 |
| 20260506110815 | 13 | 67 | 0.0 | 3.2 | 0.00 | 0.00 | 0.00 | 41 | 918.5 |
| 20260506110711 | 13 | 67 | 0.0 | 3.2 | 0.00 | 0.00 | 0.00 | 41 | 918.5 |
| 20260506110607 | 13 | 68 | 0.0 | 3.2 | 0.00 | 0.00 | 0.00 | 41 | 918.5 |
| 20260506110504 | 13 | 71 | 0.0 | 3.2 | 0.00 | 0.00 | 0.00 | 41 | 918.5 |
| 20260506110359 | 13 | 73 | 1.6 | 3.2 | 0.00 | 0.00 | 0.00 | 41 | 918.5 |
| 20260506110255 | 13 | 84 | 1.6 | 3.2 | 0.00 | 0.00 | 0.00 | 41 | 918.5 |
| 20260506110150 | 13 | 79 | 1.6 | 3.2 | 0.00 | 0.00 | 0.00 | 41 | 918.4 |
| 20260506110046 | 13 | 58 | 1.6 | 3.2 | 0.00 | 0.00 | 0.00 | 41 | 918.5 |
| 20260506105942 | 13 | 59 | 1.6 | 3.2 | 0.00 | 0.00 | 0.00 | 41 | 918.4 |
| 20260506105836 | 13 | 54 | 0.0 | 3.2 | 0.00 | 0.00 | 0.00 | 41 | 918.4 |
| 20260506105729 | 13 | 52 | 0.0 | 3.2 | 0.00 | 0.00 | 0.00 | 41 | 918.4 |
| 20260506105622 | 13 | 62 | 0.0 | 3.2 | 0.00 | 0.00 | 0.00 | 41 | 918.4 |
| 20260506105517 | 13 | 53 | 0.0 | 3.2 | 0.00 | 0.00 | 0.00 | 41 | 918.4 |
| 20260506105415 | 13 | 57 | 0.0 | 1.6 | 0.00 | 0.00 | 0.00 | 41 | 918.4 |
| 20260506105053 | 13 | 80 | 0.0 | 1.6 | 0.00 | 0.00 | 0.00 | 41 | 918.3 |
| 20260506104948 | 13 | 82 | 0.0 | 0.0 | 0.00 | 0.00 | 0.00 | 41 | 918.3 |
| 20260506104845 | 13 | 82 | 0.0 | 0.0 | 0.00 | 0.00 | 0.00 | 41 | 918.3 |
| 20260506104739 | 13 | 82 | 0.0 | 0.0 | 0.00 | 0.00 | 0.00 | 41 | 918.3 |
| 20260506104635 | 13 | 82 | 0.0 | 0.0 | 0.00 | 0.00 | 0.00 | 41 | 918.2 |
| 20260506104530 | 13 | 82 | 0.0 | 0.0 | 0.00 | 0.00 | 0.00 | 41 | 918.2 |
| 20260506104424 | 13 | 82 | 0.0 | 0.0 | 0.00 | 0.00 | 0.00 | 41 | 918.2 |
| 20260506104320 | 13 | 82 | 0.0 | 0.0 | 0.00 | 0.00 | 0.00 | 41 | 918.2 |
| 20260506103957 | 13 | 82 | 0.0 | 0.0 | 0.00 | 0.00 | 0.00 | 41 | 918.1 |
| 20260506103850 | 14 | 82 | 0.0 | 0.0 | 0.00 | 0.00 | 0.00 | 41 | 918.1 |
| 20260506103743 | 14 | 82 | 0.0 | 0.0 | 0.00 | 0.00 | 0.00 | 41 | 918.1 |
| 20260506103638 | 14 | 82 | 0.0 | 0.0 | 0.00 | 0.00 | 0.00 | 41 | 918.1 |
| 20260506103535 | 14 | 82 | 0.0 | 0.0 | 0.00 | 0.00 | 0.00 | 41 | 918.1 |
| 20260506103209 | 14 | 82 | 0.0 | 0.0 | 0.00 | 0.00 | 0.00 | 40 | 918.0 |
| 20260506103107 | 14 | 82 | 0.0 | 0.0 | 0.00 | 0.00 | 0.00 | 40 | 918.0 |
| 20260506103005 | 14 | 82 | 0.0 | 0.0 | 0.00 | 0.00 | 0.00 | 40 | 918.0 |
| 20260506102903 | 14 | 82 | 0.0 | 0.0 | 0.00 | 0.00 | 0.00 | 40 | 918.0 |
| 20260506102800 | 14 | 122 | 0.0 | 0.0 | 0.00 | 0.00 | 0.00 | 40 | 918.0 |
| 20260506102657 | 14 | 122 | 0.0 | 0.0 | 0.00 | 0.00 | 0.00 | 40 | 918.0 |
| 20260506102550 | 14 | 122 | 0.0 | 0.0 | 0.00 | 0.00 | 0.00 | 40 | 918.0 |
| 20260506102444 | 14 | 122 | 0.0 | 0.0 | 0.00 | 0.00 | 0.00 | 40 | 918.0 |
| 20260506102119 | 14 | 122 | 0.0 | 0.0 | 0.00 | 0.00 | 0.00 | 40 | 917.9 |
| 20260506102015 | 14 | 122 | 0.0 | 0.0 | 0.00 | 0.00 | 0.00 | 40 | 917.9 |
| 20260506101654 | 14 | 122 | 0.0 | 1.6 | 0.00 | 0.00 | 0.00 | 40 | 917.9 |
| 20260506101326 | 14 | 78 | 0.0 | 0.0 | 0.00 | 0.00 | 0.00 | 40 | 917.9 |
| 20260506101221 | 14 | 78 | 0.0 | 0.0 | 0.00 | 0.00 | 0.00 | 40 | 917.9 |
| 20260506101119 | 14 | 78 | 0.0 | 0.0 | 0.00 | 0.00 | 0.00 | 39 | 917.9 |
| 20260506101013 | 14 | 78 | 0.0 | 0.0 | 0.00 | 0.00 | 0.00 | 39 | 917.9 |
| 20260506100910 | 14 | 78 | 0.0 | 0.0 | 0.00 | 0.00 | 0.00 | 39 | 917.8 |
| 20260506100805 | 14 | 78 | 0.0 | 0.0 | 0.00 | 0.00 | 0.00 | 39 | 917.9 |
| 20260506100659 | 14 | 78 | 0.0 | 0.0 | 0.00 | 0.00 | 0.00 | 40 | 917.9 |
| 20260506100556 | 14 | 78 | 0.0 | 0.0 | 0.00 | 0.00 | 0.00 | 40 | 917.9 |
| 20260506100451 | 14 | 78 | 0.0 | 0.0 | 0.00 | 0.00 | 0.00 | 40 | 917.8 |
| 20260506100348 | 14 | 78 | 0.0 | 0.0 | 0.00 | 0.00 | 0.00 | 39 | 917.8 |
| 20260506100019 | 14 | 74 | 0.0 | 3.2 | 0.00 | 0.00 | 0.00 | 39 | 917.8 |
| 20260506095916 | 14 | 132 | 0.0 | 3.2 | 0.00 | 0.00 | 0.00 | 39 | 917.8 |
| 20260506095810 | 14 | 132 | 0.0 | 3.2 | 0.00 | 0.00 | 0.00 | 40 | 917.8 |
| 20260506095707 | 15 | 132 | 0.0 | 3.2 | 0.00 | 0.00 | 0.00 | 40 | 917.8 |
| 20260506095600 | 15 | 128 | 0.0 | 1.6 | 0.00 | 0.00 | 0.00 | 40 | 917.8 |
| 20260506095457 | 15 | 128 | 0.0 | 1.6 | 0.00 | 0.00 | 0.00 | 40 | 917.8 |
| 20260506095349 | 15 | 128 | 0.0 | 1.6 | 0.00 | 0.00 | 0.00 | 40 | 917.7 |
| 20260506095241 | 15 | 128 | 0.0 | 1.6 | 0.00 | 0.00 | 0.00 | 40 | 917.7 |
| 20260506095136 | 15 | 128 | 0.0 | 1.6 | 0.00 | 0.00 | 0.00 | 40 | 917.7 |
| 20260506094816 | 15 | 154 | 0.0 | 1.6 | 0.00 | 0.00 | 0.00 | 39 | 917.7 |
| 20260506094714 | 15 | 157 | 0.0 | 1.6 | 0.00 | 0.00 | 0.00 | 39 | 917.7 |
| 20260506094610 | 15 | 56 | 0.0 | 0.0 | 0.00 | 0.00 | 0.00 | 39 | 917.7 |
| 20260506094503 | 15 | 153 | 0.0 | 0.0 | 0.00 | 0.00 | 0.00 | 39 | 917.7 |
| 20260506094358 | 15 | 153 | 0.0 | 0.0 | 0.00 | 0.00 | 0.00 | 39 | 917.7 |
| 20260506094254 | 15 | 153 | 0.0 | 4.8 | 0.00 | 0.00 | 0.00 | 39 | 917.7 |
| 20260506093929 | 15 | 146 | 0.0 | 4.8 | 0.00 | 0.00 | 0.00 | 39 | 917.6 |
| 20260506093824 | 15 | 150 | 0.0 | 4.8 | 0.00 | 0.00 | 0.00 | 39 | 917.7 |
| 20260506093718 | 15 | 151 | 0.0 | 4.8 | 0.00 | 0.00 | 0.00 | 39 | 917.6 |
| 20260506093351 | 15 | 151 | 0.0 | 4.8 | 0.00 | 0.00 | 0.00 | 38 | 917.6 |
| 20260506093247 | 15 | 151 | 0.0 | 4.8 | 0.00 | 0.00 | 0.00 | 38 | 917.6 |
| 20260506093140 | 15 | 151 | 0.0 | 4.8 | 0.00 | 0.00 | 0.00 | 38 | 917.6 |
| 20260506092557 | 15 | 82 | 0.0 | 0.0 | 0.00 | 0.00 | 0.00 | 38 | 917.6 |
| 20260506092454 | 15 | 82 | 0.0 | 0.0 | 0.00 | 0.00 | 0.00 | 38 | 917.6 |
| 20260506092126 | 15 | 82 | 0.0 | 0.0 | 0.00 | 0.00 | 0.00 | 38 | 917.6 |
| 20260506092021 | 15 | 82 | 0.0 | 0.0 | 0.00 | 0.00 | 0.00 | 38 | 917.6 |
| 20260506091918 | 15 | 82 | 0.0 | 0.0 | 0.00 | 0.00 | 0.00 | 38 | 917.6 |
| 20260506091811 | 15 | 82 | 0.0 | 0.0 | 0.00 | 0.00 | 0.00 | 38 | 917.6 |
| 20260506091708 | 15 | 82 | 0.0 | 0.0 | 0.00 | 0.00 | 0.00 | 38 | 917.6 |
| 20260506091343 | 15 | 82 | 0.0 | 3.2 | 0.00 | 0.00 | 0.00 | 38 | 917.5 |
| 20260506091238 | 15 | 82 | 0.0 | 3.2 | 0.00 | 0.00 | 0.00 | 38 | 917.5 |
| 20260506090220 | 15 | 78 | 0.0 | 3.2 | 0.00 | 0.00 | 0.00 | 39 | 917.6 |
| 20260506090114 | 15 | 79 | 1.6 | 4.8 | 0.00 | 0.00 | 0.00 | 39 | 917.5 |
| 20260506085750 | 15 | 92 | 1.6 | 4.8 | 0.00 | 0.00 | 0.00 | 39 | 917.5 |
| 20260506085644 | 15 | 88 | 1.6 | 4.8 | 0.00 | 0.00 | 0.00 | 39 | 917.6 |
| 20260506085539 | 14 | 80 | 1.6 | 4.8 | 0.00 | 0.00 | 0.00 | 39 | 917.5 |
| 20260506085433 | 14 | 79 | 1.6 | 4.8 | 0.00 | 0.00 | 0.00 | 39 | 917.6 |
| 20260506085328 | 14 | 86 | 1.6 | 4.8 | 0.00 | 0.00 | 0.00 | 39 | 917.6 |
| 20260506085003 | 14 | 44 | 1.6 | 4.8 | 0.00 | 0.00 | 0.00 | 39 | 917.5 |
| 20260506084856 | 14 | 65 | 1.6 | 4.8 | 0.00 | 0.00 | 0.00 | 39 | 917.5 |
| 20260506084752 | 14 | 81 | 0.0 | 4.8 | 0.00 | 0.00 | 0.00 | 39 | 917.5 |
| 20260506084204 | 14 | 88 | 1.6 | 4.8 | 0.00 | 0.00 | 0.00 | 38 | 917.5 |
| 20260506084100 | 14 | 88 | 1.6 | 4.8 | 0.00 | 0.00 | 0.00 | 38 | 917.5 |
| 20260506083957 | 14 | 68 | 1.6 | 4.8 | 0.00 | 0.00 | 0.00 | 38 | 917.5 |
| 20260506083854 | 14 | 61 | 1.6 | 4.8 | 0.00 | 0.00 | 0.00 | 38 | 917.5 |
| 20260506083747 | 14 | 81 | 1.6 | 4.8 | 0.00 | 0.00 | 0.00 | 38 | 917.4 |
| 20260506083641 | 14 | 61 | 1.6 | 4.8 | 0.00 | 0.00 | 0.00 | 38 | 917.4 |
| 20260506083318 | 14 | 59 | 1.6 | 4.8 | 0.00 | 0.00 | 0.00 | 38 | 917.4 |
| 20260506083214 | 14 | 65 | 1.6 | 4.8 | 0.00 | 0.00 | 0.00 | 38 | 917.4 |
| 20260506083112 | 14 | 72 | 1.6 | 3.2 | 0.00 | 0.00 | 0.00 | 38 | 917.4 |
| 20260506083010 | 14 | 67 | 1.6 | 3.2 | 0.00 | 0.00 | 0.00 | 38 | 917.4 |
| 20260506082903 | 14 | 71 | 1.6 | 3.2 | 0.00 | 0.00 | 0.00 | 38 | 917.4 |
| 20260506082538 | 14 | 53 | 1.6 | 3.2 | 0.00 | 0.00 | 0.00 | 38 | 917.5 |
| 20260506082435 | 14 | 47 | 1.6 | 3.2 | 0.00 | 0.00 | 0.00 | 38 | 917.5 |
| 20260506082332 | 14 | 49 | 1.6 | 3.2 | 0.00 | 0.00 | 0.00 | 38 | 917.4 |
| 20260506082229 | 14 | 44 | 1.6 | 3.2 | 0.00 | 0.00 | 0.00 | 38 | 917.4 |
| 20260506082123 | 14 | 63 | 0.0 | 3.2 | 0.00 | 0.00 | 0.00 | 38 | 917.5 |
| 20260506082019 | 14 | 20 | 0.0 | 3.2 | 0.00 | 0.00 | 0.00 | 37 | 917.4 |
| 20260506081917 | 14 | 33 | 0.0 | 3.2 | 0.00 | 0.00 | 0.00 | 37 | 917.4 |
| 20260506081814 | 14 | 52 | 0.0 | 3.2 | 0.00 | 0.00 | 0.00 | 37 | 917.4 |
| 20260506081705 | 14 | 66 | 0.0 | 1.6 | 0.00 | 0.00 | 0.00 | 37 | 917.5 |
| 20260506081558 | 14 | 78 | 0.0 | 1.6 | 0.00 | 0.00 | 0.00 | 37 | 917.5 |
| 20260506081452 | 14 | 86 | 0.0 | 1.6 | 0.00 | 0.00 | 0.00 | 37 | 917.5 |
| 20260506081343 | 14 | 237 | 0.0 | 1.6 | 0.00 | 0.00 | 0.00 | 37 | 917.4 |
| 20260506081240 | 14 | 234 | 0.0 | 1.6 | 0.00 | 0.00 | 0.00 | 37 | 917.5 |
| 20260506081136 | 14 | 234 | 0.0 | 0.0 | 0.00 | 0.00 | 0.00 | 36 | 917.5 |
| 20260506081031 | 14 | 234 | 0.0 | 0.0 | 0.00 | 0.00 | 0.00 | 36 | 917.4 |
| 20260506080924 | 14 | 234 | 0.0 | 0.0 | 0.00 | 0.00 | 0.00 | 36 | 917.4 |
| 20260506080817 | 14 | 234 | 0.0 | 0.0 | 0.00 | 0.00 | 0.00 | 36 | 917.4 |
| 20260506080709 | 14 | 234 | 0.0 | 0.0 | 0.00 | 0.00 | 0.00 | 36 | 917.5 |
| 20260506080604 | 14 | 234 | 0.0 | 0.0 | 0.00 | 0.00 | 0.00 | 36 | 917.4 |
| 20260506080501 | 14 | 234 | 0.0 | 0.0 | 0.00 | 0.00 | 0.00 | 36 | 917.4 |
| 20260506080355 | 14 | 234 | 0.0 | 0.0 | 0.00 | 0.00 | 0.00 | 36 | 917.4 |
| 20260506080253 | 14 | 234 | 0.0 | 0.0 | 0.00 | 0.00 | 0.00 | 36 | 917.4 |
| 20260506080147 | 15 | 234 | 0.0 | 0.0 | 0.00 | 0.00 | 0.00 | 36 | 917.4 |
| 20260506073101 | 16 | 232 | 0.0 | 8.0 | 0.00 | 0.00 | 0.00 | 34 | 917.2 |
| 20260506072956 | 16 | 232 | 1.6 | 8.0 | 0.00 | 0.00 | 0.00 | 34 | 917.2 |
| 20260506072850 | 16 | 232 | 1.6 | 8.0 | 0.00 | 0.00 | 0.00 | 34 | 917.2 |
| 20260506072748 | 16 | 232 | 1.6 | 8.0 | 0.00 | 0.00 | 0.00 | 34 | 917.2 |
| 20260506072640 | 16 | 232 | 1.6 | 8.0 | 0.00 | 0.00 | 0.00 | 34 | 917.3 |
| 20260506072535 | 16 | 226 | 1.6 | 8.0 | 0.00 | 0.00 | 0.00 | 34 | 917.2 |
| 20260506072429 | 16 | 226 | 3.2 | 8.0 | 0.00 | 0.00 | 0.00 | 34 | 917.2 |
| 20260506072326 | 16 | 226 | 3.2 | 8.0 | 0.00 | 0.00 | 0.00 | 34 | 917.2 |
| 20260506072219 | 16 | 226 | 3.2 | 8.0 | 0.00 | 0.00 | 0.00 | 34 | 917.2 |
| 20260506072114 | 16 | 234 | 3.2 | 8.0 | 0.00 | 0.00 | 0.00 | 34 | 917.2 |
| 20260506072007 | 16 | 226 | 3.2 | 8.0 | 0.00 | 0.00 | 0.00 | 34 | 917.2 |
| 20260506071900 | 16 | 254 | 3.2 | 8.0 | 0.00 | 0.00 | 0.00 | 35 | 917.1 |
| 20260506071755 | 16 | 255 | 3.2 | 8.0 | 0.00 | 0.00 | 0.00 | 34 | 917.1 |
| 20260506071651 | 16 | 232 | 3.2 | 8.0 | 0.00 | 0.00 | 0.00 | 34 | 917.1 |
| 20260506071546 | 16 | 215 | 1.6 | 8.0 | 0.00 | 0.00 | 0.00 | 34 | 917.1 |
| 20260506071442 | 16 | 223 | 1.6 | 8.0 | 0.00 | 0.00 | 0.00 | 34 | 917.0 |
| 20260506071339 | 16 | 218 | 1.6 | 8.0 | 0.00 | 0.00 | 0.00 | 35 | 917.0 |
| 20260506071232 | 16 | 12 | 1.6 | 3.2 | 0.00 | 0.00 | 0.00 | 35 | 916.9 |
| 20260506071128 | 16 | 17 | 1.6 | 3.2 | 0.00 | 0.00 | 0.00 | 35 | 916.9 |
| 20260506071023 | 16 | 9 | 1.6 | 3.2 | 0.00 | 0.00 | 0.00 | 35 | 916.9 |
| 20260506070915 | 16 | 10 | 1.6 | 6.4 | 0.00 | 0.00 | 0.00 | 35 | 916.9 |
| 20260506070811 | 16 | 26 | 1.6 | 6.4 | 0.00 | 0.00 | 0.00 | 35 | 916.9 |
| 20260506070707 | 16 | 20 | 1.6 | 6.4 | 0.00 | 0.00 | 0.00 | 35 | 916.9 |
| 20260506070604 | 16 | 24 | 1.6 | 6.4 | 0.00 | 0.00 | 0.00 | 35 | 916.9 |
| 20260506070501 | 16 | 26 | 1.6 | 6.4 | 0.00 | 0.00 | 0.00 | 35 | 916.9 |
| 20260506070357 | 16 | 28 | 1.6 | 6.4 | 0.00 | 0.00 | 0.00 | 35 | 916.8 |
| 20260506070252 | 16 | 17 | 1.6 | 6.4 | 0.00 | 0.00 | 0.00 | 35 | 916.8 |
| 20260506070148 | 16 | 30 | 1.6 | 6.4 | 0.00 | 0.00 | 0.00 | 35 | 916.9 |
| 20260506062220 | 17 | 43 | 1.6 | 4.8 | 0.00 | 0.00 | 0.00 | 33 | 916.7 |
| 20260506062117 | 17 | 28 | 1.6 | 4.8 | 0.00 | 0.00 | 0.00 | 33 | 916.7 |
| 20260506061535 | 17 | 26 | 1.6 | 3.2 | 0.00 | 0.00 | 0.00 | 33 | 916.7 |
| 20260506061430 | 17 | 25 | 1.6 | 4.8 | 0.00 | 0.00 | 0.00 | 32 | 916.7 |
| 20260506061327 | 17 | 26 | 1.6 | 4.8 | 0.00 | 0.00 | 0.00 | 32 | 916.7 |
| 20260506061223 | 17 | 26 | 1.6 | 4.8 | 0.00 | 0.00 | 0.00 | 32 | 916.7 |
| 20260506061117 | 17 | 34 | 1.6 | 4.8 | 0.00 | 0.00 | 0.00 | 32 | 916.7 |
| 20260506060748 | 17 | 50 | 1.6 | 4.8 | 0.00 | 0.00 | 0.00 | 32 | 916.7 |
| 20260506060643 | 17 | 41 | 1.6 | 4.8 | 0.00 | 0.00 | 0.00 | 32 | 916.7 |
| 20260506060538 | 17 | 52 | 3.2 | 4.8 | 0.00 | 0.00 | 0.00 | 32 | 916.7 |
| 20260506060432 | 17 | 38 | 3.2 | 4.8 | 0.00 | 0.00 | 0.00 | 32 | 916.7 |
| 20260506060327 | 17 | 44 | 1.6 | 4.8 | 0.00 | 0.00 | 0.00 | 32 | 916.7 |
| 20260506060225 | 17 | 46 | 1.6 | 4.8 | 0.00 | 0.00 | 0.00 | 32 | 916.7 |
| 20260506060119 | 17 | 45 | 1.6 | 4.8 | 0.00 | 0.00 | 0.00 | 32 | 916.7 |
| 20260506051332 | 17 | 80 | 0.0 | 1.6 | 0.00 | 0.00 | 0.00 | 30 | 916.6 |
| 20260506051227 | 17 | 78 | 0.0 | 1.6 | 0.00 | 0.00 | 0.00 | 30 | 916.6 |
| 20260506051120 | 17 | 78 | 0.0 | 1.6 | 0.00 | 0.00 | 0.00 | 30 | 916.6 |
| 20260506051014 | 17 | 78 | 0.0 | 1.6 | 0.00 | 0.00 | 0.00 | 30 | 916.5 |
| 20260506050911 | 17 | 78 | 0.0 | 1.6 | 0.00 | 0.00 | 0.00 | 30 | 916.5 |
| 20260506050809 | 17 | 78 | 0.0 | 0.0 | 0.00 | 0.00 | 0.00 | 29 | 916.6 |
| 20260506050702 | 17 | 78 | 0.0 | 0.0 | 0.00 | 0.00 | 0.00 | 29 | 916.5 |
| 20260506050554 | 17 | 78 | 0.0 | 3.2 | 0.00 | 0.00 | 0.00 | 29 | 916.5 |
| 20260506050450 | 17 | 78 | 0.0 | 3.2 | 0.00 | 0.00 | 0.00 | 30 | 916.4 |
| 20260506050344 | 17 | 78 | 0.0 | 3.2 | 0.00 | 0.00 | 0.00 | 30 | 916.4 |
| 20260506050235 | 17 | 76 | 1.6 | 3.2 | 0.00 | 0.00 | 0.00 | 29 | 916.5 |
| 20260506050129 | 17 | 73 | 1.6 | 3.2 | 0.00 | 0.00 | 0.00 | 29 | 916.4 |
| 20260506045134 | 17 | 80 | 0.0 | 3.2 | 0.00 | 0.00 | 0.00 | 29 | 916.4 |
| 20260506045031 | 17 | 84 | 0.0 | 3.2 | 0.00 | 0.00 | 0.00 | 29 | 916.4 |
| 20260506044926 | 17 | 82 | 0.0 | 3.2 | 0.00 | 0.00 | 0.00 | 29 | 916.4 |
| 20260506044819 | 17 | 71 | 0.0 | 1.6 | 0.00 | 0.00 | 0.00 | 29 | 916.4 |
| 20260506044714 | 17 | 81 | 0.0 | 1.6 | 0.00 | 0.00 | 0.00 | 29 | 916.4 |
| 20260506044607 | 17 | 77 | 0.0 | 1.6 | 0.00 | 0.00 | 0.00 | 29 | 916.4 |
| 20260506044502 | 17 | 74 | 0.0 | 1.6 | 0.00 | 0.00 | 0.00 | 29 | 916.4 |
| 20260506044400 | 17 | 67 | 0.0 | 1.6 | 0.00 | 0.00 | 0.00 | 29 | 916.3 |
| 20260506044254 | 17 | 71 | 0.0 | 1.6 | 0.00 | 0.00 | 0.00 | 29 | 916.3 |
| 20260506044150 | 17 | 76 | 0.0 | 1.6 | 0.00 | 0.00 | 0.00 | 29 | 916.3 |
| 20260506044044 | 17 | 65 | 0.0 | 1.6 | 0.00 | 0.00 | 0.00 | 29 | 916.2 |
| 20260506043936 | 17 | 65 | 0.0 | 1.6 | 0.00 | 0.00 | 0.00 | 29 | 916.2 |
| 20260506043827 | 17 | 69 | 0.0 | 1.6 | 0.00 | 0.00 | 0.00 | 29 | 916.2 |
| 20260506043724 | 17 | 69 | 0.0 | 3.2 | 0.00 | 0.00 | 0.00 | 29 | 916.2 |
| 20260506043620 | 17 | 77 | 0.0 | 3.2 | 0.00 | 0.00 | 0.00 | 29 | 916.1 |
| 20260506043516 | 17 | 77 | 0.0 | 3.2 | 0.00 | 0.00 | 0.00 | 29 | 916.1 |
| 20260506043409 | 17 | 77 | 0.0 | 3.2 | 0.00 | 0.00 | 0.00 | 29 | 916.1 |
| 20260506043302 | 17 | 77 | 0.0 | 3.2 | 0.00 | 0.00 | 0.00 | 29 | 916.0 |
| 20260506043159 | 17 | 77 | 0.0 | 3.2 | 0.00 | 0.00 | 0.00 | 30 | 916.0 |
| 20260506042833 | 17 | 75 | 0.0 | 3.2 | 0.00 | 0.00 | 0.00 | 30 | 916.0 |
| 20260506042726 | 17 | 87 | 0.0 | 3.2 | 0.00 | 0.00 | 0.00 | 30 | 916.0 |
| 20260506042621 | 17 | 74 | 0.0 | 3.2 | 0.00 | 0.00 | 0.00 | 30 | 916.0 |
| 20260506042518 | 17 | 68 | 0.0 | 3.2 | 0.00 | 0.00 | 0.00 | 30 | 916.0 |
| 20260506042416 | 17 | 66 | 0.0 | 3.2 | 0.00 | 0.00 | 0.00 | 30 | 916.0 |
| 20260506042312 | 17 | 66 | 0.0 | 3.2 | 0.00 | 0.00 | 0.00 | 30 | 915.9 |
| 20260506042206 | 17 | 74 | 0.0 | 3.2 | 0.00 | 0.00 | 0.00 | 30 | 916.0 |
| 20260506042104 | 17 | 75 | 0.0 | 3.2 | 0.00 | 0.00 | 0.00 | 30 | 915.9 |
| 20260506041735 | 17 | 81 | 0.0 | 1.6 | 0.00 | 0.00 | 0.00 | 31 | 915.9 |
| 20260506041632 | 17 | 65 | 0.0 | 1.6 | 0.00 | 0.00 | 0.00 | 31 | 915.9 |
| 20260506041530 | 17 | 76 | 0.0 | 1.6 | 0.00 | 0.00 | 0.00 | 31 | 915.9 |
| 20260506041427 | 17 | 76 | 0.0 | 1.6 | 0.00 | 0.00 | 0.00 | 31 | 915.9 |
| 20260506041325 | 17 | 73 | 0.0 | 1.6 | 0.00 | 0.00 | 0.00 | 31 | 915.9 |
| 20260506041221 | 17 | 74 | 0.0 | 0.0 | 0.00 | 0.00 | 0.00 | 31 | 915.9 |
| 20260506041119 | 17 | 74 | 0.0 | 1.6 | 0.00 | 0.00 | 0.00 | 31 | 915.9 |
| 20260506041015 | 17 | 74 | 0.0 | 1.6 | 0.00 | 0.00 | 0.00 | 31 | 915.9 |
| 20260506040910 | 18 | 74 | 0.0 | 1.6 | 0.00 | 0.00 | 0.00 | 31 | 915.9 |
| 20260506040806 | 18 | 74 | 0.0 | 1.6 | 0.00 | 0.00 | 0.00 | 31 | 915.8 |
| 20260506040703 | 18 | 74 | 0.0 | 1.6 | 0.00 | 0.00 | 0.00 | 31 | 915.8 |
| 20260506040557 | 18 | 74 | 0.0 | 1.6 | 0.00 | 0.00 | 0.00 | 31 | 915.8 |
| 20260506040451 | 18 | 74 | 0.0 | 1.6 | 0.00 | 0.00 | 0.00 | 31 | 915.8 |
| 20260506040345 | 18 | 74 | 0.0 | 1.6 | 0.00 | 0.00 | 0.00 | 31 | 915.7 |
| 20260506040241 | 18 | 74 | 0.0 | 0.0 | 0.00 | 0.00 | 0.00 | 31 | 915.8 |
| 20260506035914 | 18 | 74 | 0.0 | 1.6 | 0.00 | 0.00 | 0.00 | 31 | 915.6 |
| 20260506035545 | 18 | 76 | 0.0 | 1.6 | 0.00 | 0.00 | 0.00 | 31 | 915.6 |
| 20260506035443 | 18 | 72 | 0.0 | 1.6 | 0.00 | 0.00 | 0.00 | 31 | 915.6 |
| 20260506035339 | 18 | 72 | 0.0 | 1.6 | 0.00 | 0.00 | 0.00 | 31 | 915.6 |
| 20260506035234 | 18 | 89 | 0.0 | 1.6 | 0.00 | 0.00 | 0.00 | 31 | 915.5 |
| 20260506035131 | 18 | 98 | 0.0 | 1.6 | 0.00 | 0.00 | 0.00 | 31 | 915.5 |
| 20260506034807 | 18 | 123 | 0.0 | 1.6 | 0.00 | 0.00 | 0.00 | 31 | 915.5 |
| 20260506034702 | 18 | 132 | 0.0 | 1.6 | 0.00 | 0.00 | 0.00 | 31 | 915.4 |
| 20260506034558 | 18 | 132 | 0.0 | 1.6 | 0.00 | 0.00 | 0.00 | 31 | 915.4 |
| 20260506034455 | 18 | 146 | 0.0 | 0.0 | 0.00 | 0.00 | 0.00 | 31 | 915.4 |
| 20260506034352 | 18 | 153 | 0.0 | 0.0 | 0.00 | 0.00 | 0.00 | 31 | 915.4 |
| 20260506034025 | 18 | 205 | 0.0 | 0.0 | 0.00 | 0.00 | 0.00 | 31 | 915.3 |
| 20260506033704 | 18 | 205 | 0.0 | 0.0 | 0.00 | 0.00 | 0.00 | 31 | 915.2 |
| 20260506033342 | 18 | 205 | 0.0 | 0.0 | 0.00 | 0.00 | 0.00 | 31 | 915.2 |
| 20260506033238 | 18 | 205 | 0.0 | 0.0 | 0.00 | 0.00 | 0.00 | 31 | 915.2 |
| 20260506033135 | 19 | 205 | 0.0 | 0.0 | 0.00 | 0.00 | 0.00 | 31 | 915.2 |
| 20260506033030 | 19 | 205 | 0.0 | 0.0 | 0.00 | 0.00 | 0.00 | 30 | 915.1 |
| 20260506032923 | 19 | 205 | 0.0 | 0.0 | 0.00 | 0.00 | 0.00 | 30 | 915.1 |
| 20260506032602 | 19 | 205 | 0.0 | 0.0 | 0.00 | 0.00 | 0.00 | 30 | 915.1 |
| 20260506032459 | 19 | 205 | 0.0 | 0.0 | 0.00 | 0.00 | 0.00 | 30 | 915.1 |
| 20260506032351 | 19 | 205 | 0.0 | 0.0 | 0.00 | 0.00 | 0.00 | 30 | 915.0 |
| 20260506031803 | 19 | 205 | 0.0 | 0.0 | 0.00 | 0.00 | 0.00 | 30 | 914.9 |
| 20260506031659 | 19 | 205 | 0.0 | 0.0 | 0.00 | 0.00 | 0.00 | 30 | 914.9 |
| 20260506031552 | 19 | 205 | 0.0 | 0.0 | 0.00 | 0.00 | 0.00 | 30 | 914.9 |
| 20260506031448 | 19 | 205 | 0.0 | 0.0 | 0.00 | 0.00 | 0.00 | 30 | 914.9 |
| 20260506031345 | 19 | 205 | 0.0 | 0.0 | 0.00 | 0.00 | 0.00 | 30 | 914.9 |
| 20260506030758 | 19 | 205 | 0.0 | 3.2 | 0.00 | 0.00 | 0.00 | 29 | 914.8 |
| 20260506030652 | 19 | 198 | 0.0 | 3.2 | 0.00 | 0.00 | 0.00 | 29 | 914.8 |
| 20260506030546 | 19 | 204 | 0.0 | 3.2 | 0.00 | 0.00 | 0.00 | 29 | 914.8 |
| 20260506030439 | 19 | 204 | 0.0 | 3.2 | 0.00 | 0.00 | 0.00 | 29 | 914.8 |
| 20260506030335 | 20 | 204 | 0.0 | 4.8 | 0.00 | 0.00 | 0.00 | 29 | 914.7 |
| 20260506030230 | 20 | 204 | 0.0 | 4.8 | 0.00 | 0.00 | 0.00 | 29 | 914.7 |
| 20260506030123 | 20 | 204 | 0.0 | 4.8 | 0.00 | 0.00 | 0.00 | 29 | 914.7 |
| 20260506030020 | 20 | 204 | 0.0 | 4.8 | 0.00 | 0.00 | 0.00 | 29 | 914.7 |
| 20260506025912 | 20 | 204 | 0.0 | 4.8 | 0.00 | 0.00 | 0.00 | 29 | 914.7 |
| 20260506025807 | 20 | 204 | 0.0 | 4.8 | 0.00 | 0.00 | 0.00 | 29 | 914.7 |
| 20260506025442 | 20 | 219 | 0.0 | 4.8 | 0.00 | 0.00 | 0.00 | 29 | 914.6 |
| 20260506025339 | 20 | 219 | 1.6 | 8.0 | 0.00 | 0.00 | 0.00 | 29 | 914.6 |
| 20260506025237 | 20 | 219 | 1.6 | 8.0 | 0.00 | 0.00 | 0.00 | 29 | 914.6 |
| 20260506025132 | 20 | 220 | 1.6 | 8.0 | 0.00 | 0.00 | 0.00 | 29 | 914.6 |
| 20260506025024 | 20 | 221 | 1.6 | 8.0 | 0.00 | 0.00 | 0.00 | 29 | 914.5 |
| 20260506024917 | 20 | 221 | 1.6 | 8.0 | 0.00 | 0.00 | 0.00 | 29 | 914.6 |
| 20260506024813 | 20 | 220 | 1.6 | 8.0 | 0.00 | 0.00 | 0.00 | 29 | 914.5 |
| 20260506024445 | 20 | 223 | 1.6 | 8.0 | 0.00 | 0.00 | 0.00 | 29 | 914.4 |
| 20260506024338 | 20 | 217 | 1.6 | 8.0 | 0.00 | 0.00 | 0.00 | 29 | 914.5 |
| 20260506024234 | 20 | 217 | 3.2 | 8.0 | 0.00 | 0.00 | 0.00 | 29 | 914.5 |
| 20260506024130 | 20 | 212 | 3.2 | 8.0 | 0.00 | 0.00 | 0.00 | 29 | 914.4 |
| 20260506024024 | 20 | 212 | 3.2 | 8.0 | 0.00 | 0.00 | 0.00 | 29 | 914.4 |
| 20260506023923 | 20 | 203 | 3.2 | 8.0 | 0.00 | 0.00 | 0.00 | 29 | 914.4 |
| 20260506023815 | 20 | 219 | 3.2 | 8.0 | 0.00 | 0.00 | 0.00 | 29 | 914.4 |
| 20260506023451 | 20 | 207 | 3.2 | 8.0 | 0.00 | 0.00 | 0.00 | 28 | 914.3 |
| 20260506023345 | 20 | 212 | 1.6 | 6.4 | 0.00 | 0.00 | 0.00 | 28 | 914.3 |
| 20260506023238 | 20 | 222 | 1.6 | 6.4 | 0.00 | 0.00 | 0.00 | 28 | 914.3 |
| 20260506023133 | 20 | 211 | 1.6 | 6.4 | 0.00 | 0.00 | 0.00 | 29 | 914.3 |
| 20260506023027 | 20 | 231 | 1.6 | 6.4 | 0.00 | 0.00 | 0.00 | 29 | 914.3 |
| 20260506022922 | 20 | 207 | 1.6 | 6.4 | 0.00 | 0.00 | 0.00 | 28 | 914.3 |
| 20260506022817 | 20 | 208 | 1.6 | 6.4 | 0.00 | 0.00 | 0.00 | 28 | 914.2 |
| 20260506022714 | 20 | 200 | 1.6 | 6.4 | 0.00 | 0.00 | 0.00 | 28 | 914.2 |
| 20260506022609 | 20 | 192 | 1.6 | 6.4 | 0.00 | 0.00 | 0.00 | 28 | 914.2 |
| 20260506022503 | 20 | 205 | 1.6 | 6.4 | 0.00 | 0.00 | 0.00 | 28 | 914.2 |
| 20260506022359 | 20 | 197 | 1.6 | 6.4 | 0.00 | 0.00 | 0.00 | 28 | 914.2 |
| 20260506022252 | 20 | 185 | 1.6 | 6.4 | 0.00 | 0.00 | 0.00 | 28 | 914.2 |
| 20260506022144 | 20 | 186 | 1.6 | 6.4 | 0.00 | 0.00 | 0.00 | 28 | 914.1 |
| 20260506022040 | 20 | 201 | 1.6 | 6.4 | 0.00 | 0.00 | 0.00 | 28 | 914.1 |
| 20260506021937 | 21 | 173 | 1.6 | 6.4 | 0.00 | 0.00 | 0.00 | 28 | 914.1 |
| 20260506021613 | 21 | 204 | 1.6 | 6.4 | 0.00 | 0.00 | 0.00 | 28 | 914.1 |
| 20260506021245 | 21 | 205 | 3.2 | 11.3 | 0.00 | 0.00 | 0.00 | 28 | 914.1 |
| 20260506020921 | 21 | 214 | 3.2 | 11.3 | 0.00 | 0.00 | 0.00 | 28 | 914.0 |
| 20260506020555 | 21 | 207 | 4.8 | 11.3 | 0.00 | 0.00 | 0.00 | 28 | 914.0 |
| 20260506020449 | 21 | 196 | 4.8 | 11.3 | 0.00 | 0.00 | 0.00 | 28 | 914.0 |
| 20260506020347 | 21 | 212 | 6.4 | 11.3 | 0.00 | 0.00 | 0.00 | 27 | 914.0 |
| 20260506015540 | 21 | 213 | 4.8 | 11.3 | 0.00 | 0.00 | 0.00 | 27 | 913.8 |
| 20260506015219 | 22 | 216 | 3.2 | 9.7 | 0.00 | 0.00 | 0.00 | 27 | 913.8 |
| 20260506015117 | 22 | 223 | 3.2 | 9.7 | 0.00 | 0.00 | 0.00 | 27 | 913.8 |
| 20260506015015 | 22 | 176 | 4.8 | 9.7 | 0.00 | 0.00 | 0.00 | 27 | 913.8 |
| 20260506014912 | 22 | 202 | 4.8 | 9.7 | 0.00 | 0.00 | 0.00 | 27 | 913.8 |
| 20260506014804 | 22 | 217 | 4.8 | 9.7 | 0.00 | 0.00 | 0.00 | 26 | 913.8 |
| 20260506014657 | 22 | 194 | 4.8 | 9.7 | 0.00 | 0.00 | 0.00 | 26 | 913.8 |
| 20260506014552 | 22 | 213 | 4.8 | 9.7 | 0.00 | 0.00 | 0.00 | 26 | 913.8 |
| 20260506014445 | 22 | 204 | 4.8 | 9.7 | 0.00 | 0.00 | 0.00 | 27 | 913.8 |
| 20260506014341 | 22 | 200 | 4.8 | 9.7 | 0.00 | 0.00 | 0.00 | 26 | 913.8 |
| 20260506014239 | 22 | 195 | 4.8 | 9.7 | 0.00 | 0.00 | 0.00 | 26 | 913.8 |
| 20260506014133 | 22 | 217 | 4.8 | 9.7 | 0.00 | 0.00 | 0.00 | 26 | 913.7 |
| 20260506014027 | 22 | 207 | 4.8 | 9.7 | 0.00 | 0.00 | 0.00 | 26 | 913.8 |
| 20260506013920 | 22 | 212 | 3.2 | 9.7 | 0.00 | 0.00 | 0.00 | 26 | 913.7 |
| 20260506013811 | 22 | 234 | 3.2 | 11.3 | 0.00 | 0.00 | 0.00 | 27 | 913.8 |
| 20260506013444 | 22 | 187 | 3.2 | 11.3 | 0.00 | 0.00 | 0.00 | 27 | 913.7 |
| 20260506013340 | 22 | 224 | 3.2 | 11.3 | 0.00 | 0.00 | 0.00 | 27 | 913.7 |
| 20260506013236 | 22 | 171 | 3.2 | 11.3 | 0.00 | 0.00 | 0.00 | 27 | 913.7 |
| 20260506013129 | 22 | 194 | 3.2 | 11.3 | 0.00 | 0.00 | 0.00 | 26 | 913.7 |
| 20260506013028 | 22 | 212 | 3.2 | 11.3 | 0.00 | 0.00 | 0.00 | 26 | 913.7 |
| 20260506012707 | 22 | 184 | 3.2 | 11.3 | 0.00 | 0.00 | 0.00 | 26 | 913.6 |
| 20260506012600 | 22 | 216 | 3.2 | 11.3 | 0.00 | 0.00 | 0.00 | 27 | 913.7 |
| 20260506012454 | 22 | 196 | 3.2 | 11.3 | 0.00 | 0.00 | 0.00 | 27 | 913.7 |
| 20260506012351 | 22 | 221 | 3.2 | 11.3 | 0.00 | 0.00 | 0.00 | 26 | 913.6 |
| 20260506012027 | 22 | 229 | 3.2 | 11.3 | 0.00 | 0.00 | 0.00 | 26 | 913.7 |
| 20260506011922 | 22 | 232 | 3.2 | 11.3 | 0.00 | 0.00 | 0.00 | 26 | 913.6 |
| 20260506011818 | 22 | 250 | 3.2 | 9.7 | 0.00 | 0.00 | 0.00 | 27 | 913.7 |
| 20260506011715 | 22 | 193 | 3.2 | 9.7 | 0.00 | 0.00 | 0.00 | 26 | 913.6 |
| 20260506011611 | 22 | 219 | 3.2 | 9.7 | 0.00 | 0.00 | 0.00 | 27 | 913.6 |
| 20260506011506 | 22 | 213 | 3.2 | 9.7 | 0.00 | 0.00 | 0.00 | 27 | 913.6 |
| 20260506011358 | 22 | 204 | 3.2 | 9.7 | 0.00 | 0.00 | 0.00 | 26 | 913.7 |
| 20260506011253 | 22 | 213 | 4.8 | 9.7 | 0.00 | 0.00 | 0.00 | 27 | 913.7 |
| 20260506011146 | 22 | 202 | 4.8 | 9.7 | 0.00 | 0.00 | 0.00 | 26 | 913.7 |
| 20260506011041 | 22 | 201 | 4.8 | 12.9 | 0.00 | 0.00 | 0.00 | 26 | 913.8 |
| 20260506010933 | 22 | 219 | 3.2 | 12.9 | 0.00 | 0.00 | 0.00 | 26 | 913.7 |
| 20260506010827 | 22 | 200 | 3.2 | 12.9 | 0.00 | 0.00 | 0.00 | 27 | 913.8 |
| 20260506010721 | 22 | 227 | 3.2 | 12.9 | 0.00 | 0.00 | 0.00 | 26 | 913.7 |
| 20260506010615 | 22 | 227 | 3.2 | 12.9 | 0.00 | 0.00 | 0.00 | 27 | 913.7 |
| 20260506010506 | 22 | 190 | 3.2 | 12.9 | 0.00 | 0.00 | 0.00 | 26 | 913.8 |
| 20260506010401 | 22 | 167 | 3.2 | 12.9 | 0.00 | 0.00 | 0.00 | 26 | 913.7 |
| 20260506010254 | 22 | 179 | 3.2 | 12.9 | 0.00 | 0.00 | 0.00 | 26 | 913.7 |
| 20260506010152 | 22 | 196 | 4.8 | 12.9 | 0.00 | 0.00 | 0.00 | 26 | 913.7 |
| 20260506010047 | 22 | 169 | 4.8 | 12.9 | 0.00 | 0.00 | 0.00 | 26 | 913.7 |
| 20260506005940 | 22 | 182 | 4.8 | 12.9 | 0.00 | 0.00 | 0.00 | 26 | 913.7 |
| 20260506005835 | 22 | 169 | 4.8 | 12.9 | 0.00 | 0.00 | 0.00 | 26 | 913.7 |
| 20260506005727 | 22 | 176 | 4.8 | 12.9 | 0.00 | 0.00 | 0.00 | 26 | 913.7 |
| 20260506005622 | 22 | 190 | 4.8 | 12.9 | 0.00 | 0.00 | 0.00 | 26 | 913.7 |
| 20260506005514 | 22 | 201 | 4.8 | 12.9 | 0.00 | 0.00 | 0.00 | 26 | 913.7 |
| 20260506005408 | 22 | 218 | 4.8 | 12.9 | 0.00 | 0.00 | 0.00 | 26 | 913.7 |
| 20260506005040 | 22 | 188 | 1.6 | 9.7 | 0.00 | 0.00 | 0.00 | 26 | 913.7 |
| 20260506004938 | 22 | 211 | 1.6 | 9.7 | 0.00 | 0.00 | 0.00 | 26 | 913.8 |
| 20260506004836 | 22 | 198 | 1.6 | 9.7 | 0.00 | 0.00 | 0.00 | 26 | 913.7 |
| 20260506004730 | 22 | 165 | 1.6 | 9.7 | 0.00 | 0.00 | 0.00 | 27 | 913.7 |
| 20260506004627 | 22 | 180 | 1.6 | 9.7 | 0.00 | 0.00 | 0.00 | 27 | 913.7 |
| 20260506004524 | 22 | 165 | 1.6 | 9.7 | 0.00 | 0.00 | 0.00 | 26 | 913.7 |
| 20260506003939 | 22 | 206 | 3.2 | 9.7 | 0.00 | 0.00 | 0.00 | 26 | 913.7 |
| 20260506003837 | 22 | 182 | 3.2 | 9.7 | 0.00 | 0.00 | 0.00 | 26 | 913.7 |
| 20260506003730 | 22 | 153 | 3.2 | 9.7 | 0.00 | 0.00 | 0.00 | 26 | 913.6 |
| 20260506003404 | 23 | 205 | 3.2 | 9.7 | 0.00 | 0.00 | 0.00 | 26 | 913.7 |
| 20260506003300 | 23 | 186 | 3.2 | 9.7 | 0.00 | 0.00 | 0.00 | 26 | 913.6 |
| 20260506003155 | 23 | 165 | 3.2 | 9.7 | 0.00 | 0.00 | 0.00 | 26 | 913.6 |
| 20260506003053 | 23 | 160 | 3.2 | 9.7 | 0.00 | 0.00 | 0.00 | 26 | 913.6 |
| 20260506002726 | 23 | 279 | 3.2 | 12.9 | 0.00 | 0.00 | 0.00 | 26 | 913.6 |
| 20260506002619 | 22 | 223 | 4.8 | 12.9 | 0.00 | 0.00 | 0.00 | 26 | 913.6 |
| 20260506002512 | 22 | 240 | 4.8 | 12.9 | 0.00 | 0.00 | 0.00 | 26 | 913.5 |
| 20260506002409 | 22 | 215 | 4.8 | 12.9 | 0.00 | 0.00 | 0.00 | 26 | 913.5 |
| 20260506002306 | 22 | 200 | 4.8 | 12.9 | 0.00 | 0.00 | 0.00 | 26 | 913.5 |
| 20260506002203 | 23 | 165 | 4.8 | 12.9 | 0.00 | 0.00 | 0.00 | 26 | 913.5 |
| 20260506001842 | 23 | 155 | 4.8 | 19.3 | 0.00 | 0.00 | 0.00 | 26 | 913.5 |
| 20260506001518 | 23 | 174 | 4.8 | 19.3 | 0.00 | 0.00 | 0.00 | 26 | 913.4 |
| 20260506001149 | 23 | 118 | 6.4 | 19.3 | 0.00 | 0.00 | 0.00 | 25 | 913.4 |
| 20260506001045 | 23 | 144 | 8.0 | 19.3 | 0.00 | 0.00 | 0.00 | 26 | 913.4 |
| 20260506000939 | 23 | 180 | 8.0 | 19.3 | 0.00 | 0.00 | 0.00 | 26 | 913.4 |
| 20260506000616 | 23 | 216 | 9.7 | 19.3 | 0.00 | 0.00 | 0.00 | 26 | 913.5 |
| 20260506000510 | 23 | 219 | 9.7 | 19.3 | 0.00 | 0.00 | 0.00 | 26 | 913.5 |
| 20260506000404 | 23 | 211 | 9.7 | 19.3 | 0.00 | 0.00 | 0.00 | 26 | 913.5 |
| 20260506000302 | 23 | 232 | 8.0 | 19.3 | 0.00 | 0.00 | 0.00 | 26 | 913.5 |
| 20260506000156 | 23 | 240 | 8.0 | 19.3 | 0.00 | 0.00 | 0.00 | 26 | 913.5 |
| 20260506000048 | 23 | 217 | 6.4 | 19.3 | 0.00 | 0.00 | 0.00 | 26 | 913.4 |
| 20260505235944 | 23 | 222 | 4.8 | 19.3 | 0.00 | 0.00 | 0.00 | 26 | 913.5 |
| 20260505235842 | 23 | 202 | 4.8 | 17.7 | 0.00 | 0.00 | 0.00 | 26 | 913.5 |
| 20260505235736 | 23 | 200 | 4.8 | 17.7 | 0.00 | 0.00 | 0.00 | 26 | 913.4 |
| 20260505235632 | 23 | 221 | 4.8 | 17.7 | 0.00 | 0.00 | 0.00 | 26 | 913.5 |
| 20260505235525 | 23 | 222 | 4.8 | 17.7 | 0.00 | 0.00 | 0.00 | 26 | 913.4 |
| 20260505235203 | 23 | 205 | 6.4 | 17.7 | 0.00 | 0.00 | 0.00 | 26 | 913.4 |
| 20260505235100 | 23 | 202 | 6.4 | 17.7 | 0.00 | 0.00 | 0.00 | 26 | 913.4 |
| 20260505234953 | 23 | 216 | 6.4 | 17.7 | 0.00 | 0.00 | 0.00 | 26 | 913.4 |
| 20260505234848 | 23 | 227 | 6.4 | 17.7 | 0.00 | 0.00 | 0.00 | 26 | 913.4 |
| 20260505234742 | 23 | 180 | 6.4 | 17.7 | 0.00 | 0.00 | 0.00 | 26 | 913.5 |
| 20260505234636 | 23 | 198 | 6.4 | 17.7 | 0.00 | 0.00 | 0.00 | 26 | 913.4 |
| 20260505234532 | 23 | 241 | 4.8 | 17.7 | 0.00 | 0.00 | 0.00 | 26 | 913.4 |
| 20260505234428 | 23 | 214 | 4.8 | 17.7 | 0.00 | 0.00 | 0.00 | 26 | 913.4 |
| 20260505234324 | 23 | 221 | 4.8 | 17.7 | 0.00 | 0.00 | 0.00 | 26 | 913.4 |
| 20260505234000 | 23 | 203 | 6.4 | 12.9 | 0.00 | 0.00 | 0.00 | 26 | 913.4 |
| 20260505233853 | 23 | 150 | 6.4 | 12.9 | 0.00 | 0.00 | 0.00 | 26 | 913.4 |
| 20260505233749 | 23 | 187 | 6.4 | 12.9 | 0.00 | 0.00 | 0.00 | 26 | 913.4 |
| 20260505233646 | 23 | 200 | 4.8 | 12.9 | 0.00 | 0.00 | 0.00 | 26 | 913.4 |
| 20260505233544 | 23 | 192 | 4.8 | 12.9 | 0.00 | 0.00 | 0.00 | 26 | 913.3 |
| 20260505233437 | 23 | 236 | 4.8 | 12.9 | 0.00 | 0.00 | 0.00 | 26 | 913.4 |
| 20260505233113 | 23 | 207 | 3.2 | 17.7 | 0.00 | 0.00 | 0.00 | 26 | 913.3 |
| 20260505232749 | 23 | 273 | 3.2 | 17.7 | 0.00 | 0.00 | 0.00 | 26 | 913.3 |
| 20260505232643 | 23 | 27 | 3.2 | 17.7 | 0.00 | 0.00 | 0.00 | 25 | 913.3 |
| 20260505232538 | 23 | 0 | 4.8 | 17.7 | 0.00 | 0.00 | 0.00 | 25 | 913.4 |
| 20260505232213 | 23 | 240 | 4.8 | 17.7 | 0.00 | 0.00 | 0.00 | 26 | 913.3 |
| 20260505231847 | 23 | 243 | 4.8 | 17.7 | 0.00 | 0.00 | 0.00 | 26 | 913.3 |
| 20260505231521 | 23 | 232 | 3.2 | 17.7 | 0.00 | 0.00 | 0.00 | 26 | 913.4 |
| 20260505231415 | 23 | 309 | 1.6 | 17.7 | 0.00 | 0.00 | 0.00 | 27 | 913.4 |
| 20260505231311 | 23 | 258 | 3.2 | 17.7 | 0.00 | 0.00 | 0.00 | 27 | 913.5 |
| 20260505231204 | 22 | 243 | 3.2 | 17.7 | 0.00 | 0.00 | 0.00 | 27 | 913.5 |
| 20260505231058 | 22 | 213 | 3.2 | 14.5 | 0.00 | 0.00 | 0.00 | 27 | 913.5 |
| 20260505230951 | 22 | 189 | 3.2 | 14.5 | 0.00 | 0.00 | 0.00 | 27 | 913.4 |
| 20260505230845 | 22 | 184 | 3.2 | 14.5 | 0.00 | 0.00 | 0.00 | 27 | 913.5 |
| 20260505230738 | 22 | 184 | 3.2 | 14.5 | 0.00 | 0.00 | 0.00 | 27 | 913.5 |
| 20260505230634 | 22 | 221 | 3.2 | 14.5 | 0.00 | 0.00 | 0.00 | 27 | 913.6 |
| 20260505230527 | 22 | 143 | 3.2 | 14.5 | 0.00 | 0.00 | 0.00 | 27 | 913.6 |
| 20260505230425 | 22 | 183 | 3.2 | 14.5 | 0.00 | 0.00 | 0.00 | 27 | 913.6 |
| 20260505230320 | 22 | 241 | 3.2 | 14.5 | 0.00 | 0.00 | 0.00 | 27 | 913.6 |
| 20260505230214 | 22 | 223 | 3.2 | 14.5 | 0.00 | 0.00 | 0.00 | 27 | 913.6 |
| 20260505230107 | 22 | 169 | 3.2 | 14.5 | 0.00 | 0.00 | 0.00 | 28 | 913.7 |
| 20260505230004 | 22 | 144 | 3.2 | 14.5 | 0.00 | 0.00 | 0.00 | 27 | 913.7 |
| 20260505225638 | 22 | 156 | 4.8 | 14.5 | 0.00 | 0.00 | 0.00 | 27 | 913.7 |
| 20260505225531 | 22 | 171 | 4.8 | 14.5 | 0.00 | 0.00 | 0.00 | 27 | 913.7 |
| 20260505225424 | 22 | 187 | 3.2 | 12.9 | 0.00 | 0.00 | 0.00 | 27 | 913.7 |
| 20260505225319 | 22 | 163 | 3.2 | 12.9 | 0.00 | 0.00 | 0.00 | 27 | 913.7 |
| 20260505225216 | 22 | 193 | 3.2 | 12.9 | 0.00 | 0.00 | 0.00 | 28 | 913.7 |
| 20260505225109 | 22 | 152 | 3.2 | 12.9 | 0.00 | 0.00 | 0.00 | 27 | 913.7 |
| 20260505225006 | 22 | 190 | 3.2 | 12.9 | 0.00 | 0.00 | 0.00 | 27 | 913.7 |
| 20260505224904 | 22 | 161 | 3.2 | 12.9 | 0.00 | 0.00 | 0.00 | 27 | 913.7 |
| 20260505224758 | 22 | 222 | 1.6 | 12.9 | 0.00 | 0.00 | 0.00 | 27 | 913.7 |
| 20260505224651 | 22 | 159 | 1.6 | 12.9 | 0.00 | 0.00 | 0.00 | 28 | 913.7 |
| 20260505224544 | 22 | 159 | 3.2 | 12.9 | 0.00 | 0.00 | 0.00 | 28 | 913.7 |
| 20260505224442 | 22 | 194 | 3.2 | 12.9 | 0.00 | 0.00 | 0.00 | 27 | 913.7 |
| 20260505223858 | 22 | 168 | 3.2 | 12.9 | 0.00 | 0.00 | 0.00 | 28 | 913.8 |
| 20260505223530 | 22 | 9 | 3.2 | 12.9 | 0.00 | 0.00 | 0.00 | 27 | 913.8 |
| 20260505222945 | 22 | 13 | 1.6 | 6.4 | 0.00 | 0.00 | 0.00 | 27 | 913.9 |
| 20260505222616 | 22 | 46 | 1.6 | 6.4 | 0.00 | 0.00 | 0.00 | 27 | 914.0 |
| 20260505222509 | 22 | 159 | 1.6 | 6.4 | 0.00 | 0.00 | 0.00 | 27 | 914.0 |
| 20260505222404 | 22 | 140 | 1.6 | 6.4 | 0.00 | 0.00 | 0.00 | 27 | 914.0 |
| 20260505222258 | 22 | 170 | 1.6 | 6.4 | 0.00 | 0.00 | 0.00 | 27 | 914.0 |
| 20260505222153 | 22 | 89 | 1.6 | 8.0 | 0.00 | 0.00 | 0.00 | 27 | 914.0 |
| 20260505222046 | 22 | 170 | 1.6 | 8.0 | 0.00 | 0.00 | 0.00 | 28 | 914.0 |
| 20260505221944 | 22 | 130 | 1.6 | 8.0 | 0.00 | 0.00 | 0.00 | 27 | 914.0 |
| 20260505221841 | 22 | 150 | 1.6 | 8.0 | 0.00 | 0.00 | 0.00 | 27 | 914.0 |
| 20260505221520 | 22 | 137 | 1.6 | 8.0 | 0.00 | 0.00 | 0.00 | 27 | 914.1 |
| 20260505221419 | 22 | 138 | 1.6 | 8.0 | 0.00 | 0.00 | 0.00 | 27 | 914.0 |
| 20260505221312 | 22 | 200 | 0.0 | 8.0 | 0.00 | 0.00 | 0.00 | 27 | 914.0 |
| 20260505221207 | 22 | 169 | 1.6 | 8.0 | 0.00 | 0.00 | 0.00 | 27 | 914.0 |
| 20260505220840 | 22 | 124 | 1.6 | 9.7 | 0.00 | 0.00 | 0.00 | 27 | 914.1 |
| 20260505220733 | 22 | 81 | 1.6 | 9.7 | 0.00 | 0.00 | 0.00 | 26 | 914.1 |
| 20260505220627 | 22 | 119 | 1.6 | 9.7 | 0.00 | 0.00 | 0.00 | 27 | 914.1 |
| 20260505220524 | 22 | 121 | 1.6 | 9.7 | 0.00 | 0.00 | 0.00 | 27 | 914.2 |
| 20260505220419 | 23 | 132 | 1.6 | 9.7 | 0.00 | 0.00 | 0.00 | 26 | 914.1 |
| 20260505220313 | 23 | 135 | 1.6 | 9.7 | 0.00 | 0.00 | 0.00 | 26 | 914.2 |
| 20260505220207 | 23 | 148 | 1.6 | 9.7 | 0.00 | 0.00 | 0.00 | 27 | 914.2 |
| 20260505220104 | 23 | 278 | 1.6 | 9.7 | 0.00 | 0.00 | 0.00 | 27 | 914.2 |
| 20260505220001 | 22 | 168 | 1.6 | 9.7 | 0.00 | 0.00 | 0.00 | 27 | 914.2 |
| 20260505215859 | 22 | 158 | 1.6 | 9.7 | 0.00 | 0.00 | 0.00 | 27 | 914.2 |
| 20260505215752 | 22 | 169 | 1.6 | 9.7 | 0.00 | 0.00 | 0.00 | 27 | 914.2 |
| 20260505215647 | 22 | 134 | 1.6 | 9.7 | 0.00 | 0.00 | 0.00 | 27 | 914.3 |
| 20260505215539 | 22 | 157 | 1.6 | 9.7 | 0.00 | 0.00 | 0.00 | 27 | 914.3 |
| 20260505215435 | 22 | 139 | 1.6 | 9.7 | 0.00 | 0.00 | 0.00 | 27 | 914.3 |
| 20260505215331 | 22 | 158 | 0.0 | 9.7 | 0.00 | 0.00 | 0.00 | 27 | 914.3 |
| 20260505215225 | 22 | 163 | 0.0 | 9.7 | 0.00 | 0.00 | 0.00 | 28 | 914.4 |
| 20260505215120 | 22 | 159 | 0.0 | 3.2 | 0.00 | 0.00 | 0.00 | 27 | 914.4 |
| 20260505215015 | 22 | 146 | 0.0 | 12.9 | 0.00 | 0.00 | 0.00 | 28 | 914.3 |
| 20260505214908 | 22 | 96 | 0.0 | 12.9 | 0.00 | 0.00 | 0.00 | 27 | 914.4 |
| 20260505214804 | 22 | 270 | 0.0 | 12.9 | 0.00 | 0.00 | 0.00 | 28 | 914.4 |
| 20260505214659 | 22 | 246 | 1.6 | 12.9 | 0.00 | 0.00 | 0.00 | 28 | 914.4 |
| 20260505214336 | 22 | 179 | 1.6 | 12.9 | 0.00 | 0.00 | 0.00 | 27 | 914.4 |
| 20260505214232 | 22 | 54 | 1.6 | 12.9 | 0.00 | 0.00 | 0.00 | 27 | 914.4 |
| 20260505214125 | 22 | 334 | 1.6 | 12.9 | 0.00 | 0.00 | 0.00 | 27 | 914.4 |
| 20260505213801 | 22 | 278 | 3.2 | 12.9 | 0.00 | 0.00 | 0.00 | 28 | 914.5 |
| 20260505213658 | 22 | 315 | 1.6 | 12.9 | 0.00 | 0.00 | 0.00 | 28 | 914.5 |
| 20260505213550 | 22 | 355 | 1.6 | 12.9 | 0.00 | 0.00 | 0.00 | 28 | 914.6 |